Wetterdaten: Montag, 18.03.2019
Datum Zeit Temp. Aussen Temp. o. S. +5cm Feuchte Auss Luftdruck Regen Sonnenschein Regendauer Solar Windben Empfang
18.03.2019 00:00 3,2 C 2,8 C 2,2 C 89 % 1008,9 hPa 0,0 l/m 0 min 0 min 0 W/m 12,9 km/h (3 Bft) 100,00 %
18.03.2019 00:02 3,2 C 2,8 C 2,2 C 89 % 1009,0 hPa 0,0 l/m 0 min 0 min 0 W/m 9,7 km/h (2 Bft) 11,11 %
18.03.2019 00:04 3,2 C 2,8 C 2,2 C 90 % 1008,9 hPa 0,0 l/m 0 min 0 min 0 W/m 9,7 km/h (2 Bft) 89,47 %
18.03.2019 00:07 3,2 C 2,8 C 2,2 C 89 % 1008,9 hPa 0,0 l/m 0 min 0 min 0 W/m 9,7 km/h (2 Bft) 98,57 %
18.03.2019 00:08 3,1 C 2,8 C 2,2 C 90 % 1008,9 hPa 0,0 l/m 0 min 0 min 0 W/m 9,7 km/h (2 Bft) 100,00 %
18.03.2019 00:10 3,2 C 2,8 C 2,2 C 89 % 1009,1 hPa 0,0 l/m 0 min 0 min 0 W/m 16,1 km/h (3 Bft) 100,00 %
18.03.2019 00:12 3,2 C 2,8 C 2,2 C 90 % 1009,1 hPa 0,0 l/m 0 min 0 min 0 W/m 9,7 km/h (2 Bft) 100,00 %
18.03.2019 00:14 3,2 C 2,8 C 2,2 C 89 % 1009,2 hPa 0,0 l/m 0 min 0 min 0 W/m 22,5 km/h (4 Bft) 97,83 %
18.03.2019 00:16 3,2 C 2,8 C 2,2 C 89 % 1009,2 hPa 0,0 l/m 0 min 0 min 0 W/m 22,5 km/h (4 Bft) 100,00 %
18.03.2019 00:19 3,2 C 2,8 C 2,2 C 89 % 1009,2 hPa 0,0 l/m 0 min 0 min 0 W/m 19,3 km/h (3 Bft) 96,34 %
18.03.2019 00:20 3,2 C 2,8 C 2,2 C 89 % 1009,2 hPa 0,0 l/m 0 min 0 min 0 W/m 12,9 km/h (3 Bft) 100,00 %
18.03.2019 00:22 3,2 C 2,8 C 2,2 C 89 % 1009,2 hPa 0,0 l/m 0 min 0 min 0 W/m 12,9 km/h (3 Bft) 97,87 %
18.03.2019 00:24 3,2 C 2,8 C 2,2 C 89 % 1009,2 hPa 0,0 l/m 0 min 0 min 0 W/m 19,3 km/h (3 Bft) 100,00 %
18.03.2019 00:26 3,2 C 2,8 C 2,2 C 89 % 1009,2 hPa 0,0 l/m 0 min 0 min 0 W/m 12,9 km/h (3 Bft) 97,83 %
18.03.2019 00:28 3,2 C 2,8 C 2,2 C 89 % 1009,3 hPa 0,0 l/m 0 min 0 min 0 W/m 12,9 km/h (3 Bft) 95,74 %
18.03.2019 00:30 3,2 C 2,8 C 2,2 C 89 % 1009,3 hPa 0,0 l/m 0 min 0 min 0 W/m 9,7 km/h (2 Bft) 97,87 %
18.03.2019 00:32 3,2 C 2,8 C 2,2 C 89 % 1009,3 hPa 0,0 l/m 0 min 0 min 0 W/m 12,9 km/h (3 Bft) 97,87 %
18.03.2019 00:34 3,1 C 2,8 C 2,2 C 89 % 1009,3 hPa 0,0 l/m 0 min 0 min 0 W/m 16,1 km/h (3 Bft) 95,74 %
18.03.2019 00:36 3,1 C 2,8 C 2,2 C 89 % 1009,3 hPa 0,0 l/m 0 min 0 min 0 W/m 16,1 km/h (3 Bft) 94,83 %
18.03.2019 00:38 3,1 C 2,2 C 2,2 C 90 % 1009,3 hPa 0,0 l/m 0 min 0 min 0 W/m 6,4 km/h (2 Bft) 94,29 %
18.03.2019 00:40 3,1 C 2,8 C 2,2 C 90 % 1009,3 hPa 0,0 l/m 0 min 0 min 0 W/m 12,9 km/h (3 Bft) 93,62 %
18.03.2019 00:42 3,1 C 2,8 C 2,2 C 90 % 1009,3 hPa 0,0 l/m 0 min 0 min 0 W/m 9,7 km/h (2 Bft) 95,74 %
18.03.2019 00:44 3,1 C 2,8 C 2,2 C 90 % 1009,2 hPa 0,0 l/m 0 min 0 min 0 W/m 12,9 km/h (3 Bft) 93,62 %
18.03.2019 00:46 3,1 C 2,2 C 1,7 C 90 % 1009,2 hPa 0,0 l/m 0 min 0 min 0 W/m 9,7 km/h (2 Bft) 95,74 %
18.03.2019 00:48 3,1 C 2,2 C 1,7 C 90 % 1009,2 hPa 0,0 l/m 0 min 0 min 0 W/m 9,7 km/h (2 Bft) 95,65 %
18.03.2019 00:50 3,1 C 2,2 C 1,7 C 90 % 1009,2 hPa 0,0 l/m 0 min 0 min 0 W/m 6,4 km/h (2 Bft) 95,74 %
18.03.2019 00:52 3,1 C 2,2 C 1,7 C 90 % 1009,2 hPa 0,0 l/m 0 min 0 min 0 W/m 22,5 km/h (4 Bft) 93,62 %
18.03.2019 00:54 3,1 C 2,2 C 1,7 C 90 % 1009,2 hPa 0,0 l/m 0 min 0 min 0 W/m 12,9 km/h (3 Bft) 95,74 %
18.03.2019 00:56 3,1 C 2,2 C 1,7 C 90 % 1009,2 hPa 0,0 l/m 0 min 0 min 0 W/m 12,9 km/h (3 Bft) 95,74 %
18.03.2019 00:58 3,1 C 2,2 C 1,7 C 90 % 1009,2 hPa 0,0 l/m 0 min 0 min 0 W/m 9,7 km/h (2 Bft) 95,74 %
18.03.2019 01:00 3,1 C 2,2 C 1,7 C 90 % 1009,2 hPa 0,0 l/m 0 min 0 min 0 W/m 9,7 km/h (2 Bft) 95,65 %
18.03.2019 01:02 3,1 C 2,2 C 1,7 C 90 % 1009,2 hPa 0,0 l/m 0 min 0 min 0 W/m 12,9 km/h (3 Bft) 93,62 %
18.03.2019 01:04 3,0 C 2,2 C 1,7 C 90 % 1009,3 hPa 0,0 l/m 0 min 0 min 0 W/m 16,1 km/h (3 Bft) 93,62 %
18.03.2019 01:06 3,0 C 2,2 C 1,7 C 90 % 1009,3 hPa 0,0 l/m 0 min 0 min 0 W/m 12,9 km/h (3 Bft) 94,92 %
18.03.2019 01:08 3,0 C 2,2 C 1,7 C 90 % 1009,3 hPa 0,0 l/m 0 min 0 min 0 W/m 12,9 km/h (3 Bft) 94,29 %
18.03.2019 01:10 3,0 C 2,2 C 1,7 C 90 % 1009,4 hPa 0,0 l/m 0 min 0 min 0 W/m 19,3 km/h (3 Bft) 95,74 %
18.03.2019 01:12 3,0 C 2,2 C 1,7 C 90 % 1009,2 hPa 0,0 l/m 0 min 0 min 0 W/m 12,9 km/h (3 Bft) 97,83 %
18.03.2019 01:14 2,9 C 2,2 C 1,7 C 90 % 1009,2 hPa 0,0 l/m 0 min 0 min 0 W/m 16,1 km/h (3 Bft) 97,87 %
18.03.2019 01:16 2,9 C 2,2 C 1,7 C 90 % 1009,2 hPa 0,0 l/m 0 min 0 min 0 W/m 12,9 km/h (3 Bft) 97,87 %
18.03.2019 01:18 2,9 C 2,2 C 1,7 C 90 % 1009,3 hPa 0,0 l/m 0 min 0 min 0 W/m 6,4 km/h (2 Bft) 100,00 %
18.03.2019 01:20 2,9 C 2,2 C 1,7 C 90 % 1009,4 hPa 0,0 l/m 0 min 0 min 0 W/m 16,1 km/h (3 Bft) 97,87 %
18.03.2019 01:22 2,9 C 2,2 C 1,7 C 90 % 1009,4 hPa 0,0 l/m 0 min 0 min 0 W/m 12,9 km/h (3 Bft) 100,00 %
18.03.2019 01:24 2,9 C 2,2 C 1,7 C 90 % 1009,4 hPa 0,0 l/m 0 min 0 min 0 W/m 9,7 km/h (2 Bft) 97,83 %
18.03.2019 01:26 2,9 C 2,2 C 1,7 C 90 % 1009,3 hPa 0,0 l/m 0 min 0 min 0 W/m 16,1 km/h (3 Bft) 97,87 %
18.03.2019 01:28 2,9 C 2,2 C 1,7 C 90 % 1009,4 hPa 0,0 l/m 0 min 0 min 0 W/m 12,9 km/h (3 Bft) 97,87 %
18.03.2019 01:30 2,9 C 2,2 C 1,7 C 90 % 1009,5 hPa 0,0 l/m 0 min 0 min 0 W/m 12,9 km/h (3 Bft) 100,00 %
18.03.2019 01:32 2,9 C 2,2 C 1,7 C 90 % 1009,5 hPa 0,0 l/m 0 min 0 min 0 W/m 16,1 km/h (3 Bft) 97,87 %
18.03.2019 01:34 2,9 C 2,2 C 1,7 C 91 % 1009,4 hPa 0,0 l/m 0 min 0 min 0 W/m 19,3 km/h (3 Bft) 97,87 %
18.03.2019 01:36 2,9 C 2,2 C 1,7 C 91 % 1009,4 hPa 0,0 l/m 0 min 0 min 0 W/m 16,1 km/h (3 Bft) 98,28 %
18.03.2019 01:38 2,9 C 2,2 C 1,7 C 91 % 1009,5 hPa 0,0 l/m 0 min 0 min 0 W/m 12,9 km/h (3 Bft) 100,00 %
18.03.2019 01:40 2,9 C 2,2 C 1,7 C 91 % 1009,6 hPa 0,0 l/m 0 min 0 min 0 W/m 12,9 km/h (3 Bft) 100,00 %
18.03.2019 01:42 2,9 C 2,2 C 1,7 C 91 % 1009,5 hPa 0,0 l/m 0 min 0 min 0 W/m 12,9 km/h (3 Bft) 97,87 %
18.03.2019 01:44 2,9 C 2,2 C 1,7 C 91 % 1009,5 hPa 0,0 l/m 0 min 0 min 0 W/m 16,1 km/h (3 Bft) 100,00 %
18.03.2019 01:46 2,9 C 2,2 C 1,7 C 91 % 1009,6 hPa 0,0 l/m 0 min 0 min 0 W/m 16,1 km/h (3 Bft) 100,00 %
18.03.2019 01:48 2,9 C 2,2 C 1,7 C 91 % 1009,5 hPa 0,0 l/m 0 min 0 min 0 W/m 19,3 km/h (3 Bft) 100,00 %
18.03.2019 01:50 2,9 C 2,2 C 1,7 C 91 % 1009,5 hPa 0,0 l/m 0 min 0 min 0 W/m 6,4 km/h (2 Bft) 100,00 %
18.03.2019 01:52 2,9 C 2,2 C 1,7 C 91 % 1009,5 hPa 0,0 l/m 0 min 0 min 0 W/m 9,7 km/h (2 Bft) 100,00 %
18.03.2019 01:54 2,9 C 2,2 C 1,7 C 91 % 1009,5 hPa 0,0 l/m 0 min 0 min 0 W/m 9,7 km/h (2 Bft) 100,00 %
18.03.2019 01:56 2,9 C 2,2 C 1,7 C 91 % 1009,6 hPa 0,0 l/m 0 min 0 min 0 W/m 12,9 km/h (3 Bft) 100,00 %
18.03.2019 01:58 2,9 C 2,2 C 1,7 C 91 % 1009,5 hPa 0,0 l/m 0 min 0 min 0 W/m 9,7 km/h (2 Bft) 100,00 %
18.03.2019 02:00 2,9 C 2,2 C 1,7 C 91 % 1009,5 hPa 0,0 l/m 0 min 0 min 0 W/m 16,1 km/h (3 Bft) 100,00 %
18.03.2019 02:02 2,9 C 2,2 C 1,7 C 91 % 1009,6 hPa 0,0 l/m 0 min 0 min 0 W/m 16,1 km/h (3 Bft) 100,00 %
18.03.2019 02:04 2,9 C 2,2 C 1,7 C 91 % 1009,7 hPa 0,0 l/m 0 min 0 min 0 W/m 6,4 km/h (2 Bft) 100,00 %
18.03.2019 02:06 2,9 C 2,2 C 1,7 C 91 % 1009,7 hPa 0,0 l/m 0 min 0 min 0 W/m 19,3 km/h (3 Bft) 100,00 %
18.03.2019 02:08 2,8 C 2,2 C 1,7 C 91 % 1009,7 hPa 0,0 l/m 0 min 0 min 0 W/m 19,3 km/h (3 Bft) 100,00 %
18.03.2019 02:10 2,9 C 2,2 C 1,7 C 91 % 1009,6 hPa 0,0 l/m 0 min 0 min 0 W/m 19,3 km/h (3 Bft) 97,87 %
18.03.2019 02:12 2,8 C 2,2 C 1,7 C 91 % 1009,6 hPa 0,0 l/m 0 min 0 min 0 W/m 16,1 km/h (3 Bft) 100,00 %
18.03.2019 02:14 2,8 C 2,2 C 1,7 C 91 % 1009,6 hPa 0,0 l/m 0 min 0 min 0 W/m 12,9 km/h (3 Bft) 100,00 %
18.03.2019 02:16 2,8 C 2,2 C 1,7 C 91 % 1009,7 hPa 0,0 l/m 0 min 0 min 0 W/m 9,7 km/h (2 Bft) 100,00 %
18.03.2019 02:18 2,8 C 2,2 C 1,7 C 91 % 1009,7 hPa 0,0 l/m 0 min 0 min 0 W/m 16,1 km/h (3 Bft) 100,00 %
18.03.2019 02:20 2,8 C 2,2 C 1,7 C 91 % 1009,7 hPa 0,0 l/m 0 min 0 min 0 W/m 6,4 km/h (2 Bft) 100,00 %
18.03.2019 02:22 2,8 C 2,2 C 1,7 C 91 % 1009,7 hPa 0,0 l/m 0 min 0 min 0 W/m 16,1 km/h (3 Bft) 100,00 %
18.03.2019 02:24 2,8 C 2,2 C 1,7 C 91 % 1009,7 hPa 0,0 l/m 0 min 0 min 0 W/m 12,9 km/h (3 Bft) 95,65 %
18.03.2019 02:26 2,8 C 2,2 C 1,7 C 91 % 1009,8 hPa 0,0 l/m 0 min 0 min 0 W/m 12,9 km/h (3 Bft) 97,87 %
18.03.2019 02:28 2,8 C 2,2 C 1,7 C 91 % 1009,8 hPa 0,0 l/m 0 min 0 min 0 W/m 12,9 km/h (3 Bft) 95,74 %
18.03.2019 02:30 2,8 C 2,2 C 1,7 C 91 % 1009,8 hPa 0,0 l/m 0 min 0 min 0 W/m 9,7 km/h (2 Bft) 95,74 %
18.03.2019 02:32 2,8 C 2,2 C 1,7 C 91 % 1009,8 hPa 0,0 l/m 0 min 0 min 0 W/m 22,5 km/h (4 Bft) 97,87 %
18.03.2019 02:34 2,8 C 2,2 C 1,7 C 91 % 1009,8 hPa 0,0 l/m 0 min 0 min 0 W/m 12,9 km/h (3 Bft) 97,83 %
18.03.2019 02:36 2,8 C 2,2 C 1,7 C 91 % 1009,8 hPa 0,0 l/m 0 min 0 min 0 W/m 12,9 km/h (3 Bft) 96,61 %
18.03.2019 02:38 2,8 C 2,2 C 1,7 C 91 % 1009,8 hPa 0,0 l/m 0 min 0 min 0 W/m 16,1 km/h (3 Bft) 97,14 %
18.03.2019 02:40 2,7 C 2,2 C 1,7 C 91 % 1009,8 hPa 0,0 l/m 0 min 0 min 0 W/m 16,1 km/h (3 Bft) 95,74 %
18.03.2019 02:42 2,7 C 2,2 C 1,7 C 91 % 1009,8 hPa 0,0 l/m 0 min 0 min 0 W/m 12,9 km/h (3 Bft) 97,87 %
18.03.2019 02:44 2,7 C 2,2 C 1,7 C 91 % 1009,9 hPa 0,0 l/m 0 min 0 min 0 W/m 9,7 km/h (2 Bft) 95,74 %
18.03.2019 02:46 2,7 C 2,2 C 1,7 C 91 % 1009,8 hPa 0,0 l/m 0 min 0 min 0 W/m 9,7 km/h (2 Bft) 95,65 %
18.03.2019 02:48 2,7 C 2,2 C 1,7 C 91 % 1009,8 hPa 0,0 l/m 0 min 0 min 0 W/m 16,1 km/h (3 Bft) 89,36 %
18.03.2019 02:50 2,7 C 2,2 C 1,7 C 91 % 1009,8 hPa 0,0 l/m 0 min 0 min 0 W/m 12,9 km/h (3 Bft) 97,87 %
18.03.2019 02:52 2,7 C 2,2 C 1,7 C 91 % 1009,8 hPa 0,0 l/m 0 min 0 min 0 W/m 19,3 km/h (3 Bft) 95,74 %
18.03.2019 02:54 2,7 C 2,2 C 1,7 C 92 % 1009,8 hPa 0,0 l/m 0 min 0 min 0 W/m 12,9 km/h (3 Bft) 93,62 %
18.03.2019 02:56 2,7 C 2,2 C 1,7 C 92 % 1009,9 hPa 0,0 l/m 0 min 0 min 0 W/m 9,7 km/h (2 Bft) 93,62 %
18.03.2019 02:58 2,7 C 2,2 C 1,7 C 91 % 1009,9 hPa 0,0 l/m 0 min 0 min 0 W/m 12,9 km/h (3 Bft) 95,65 %
18.03.2019 03:00 2,7 C 2,2 C 1,7 C 91 % 1009,9 hPa 0,0 l/m 0 min 0 min 0 W/m 9,7 km/h (2 Bft) 95,74 %
18.03.2019 03:02 2,7 C 2,2 C 1,7 C 91 % 1009,9 hPa 0,0 l/m 0 min 0 min 0 W/m 9,7 km/h (2 Bft) 95,74 %
18.03.2019 03:04 2,7 C 2,2 C 1,7 C 91 % 1009,8 hPa 0,0 l/m 0 min 0 min 0 W/m 12,9 km/h (3 Bft) 95,74 %
18.03.2019 03:06 2,7 C 2,2 C 1,7 C 91 % 1009,8 hPa 0,0 l/m 0 min 0 min 0 W/m 12,9 km/h (3 Bft) 96,55 %
18.03.2019 03:08 2,7 C 2,2 C 1,7 C 92 % 1009,9 hPa 0,0 l/m 0 min 0 min 0 W/m 12,9 km/h (3 Bft) 95,24 %
18.03.2019 03:10 2,7 C 2,2 C 1,7 C 92 % 1009,9 hPa 0,0 l/m 0 min 0 min 0 W/m 6,4 km/h (2 Bft) 95,74 %
18.03.2019 03:12 2,7 C 2,2 C 1,7 C 92 % 1009,9 hPa 0,0 l/m 0 min 0 min 0 W/m 16,1 km/h (3 Bft) 91,49 %
18.03.2019 03:14 2,7 C 2,2 C 1,7 C 92 % 1009,9 hPa 0,0 l/m 0 min 0 min 0 W/m 12,9 km/h (3 Bft) 95,74 %
18.03.2019 03:16 2,7 C 2,2 C 1,7 C 92 % 1009,9 hPa 0,0 l/m 0 min 0 min 0 W/m 9,7 km/h (2 Bft) 93,48 %
18.03.2019 03:18 2,7 C 2,2 C 1,7 C 92 % 1009,9 hPa 0,0 l/m 0 min 0 min 0 W/m 12,9 km/h (3 Bft) 91,49 %
18.03.2019 03:20 2,7 C 2,2 C 1,7 C 92 % 1009,9 hPa 0,0 l/m 0 min 0 min 0 W/m 12,9 km/h (3 Bft) 93,62 %
18.03.2019 03:22 2,7 C 2,2 C 1,7 C 92 % 1009,8 hPa 0,0 l/m 0 min 0 min 0 W/m 12,9 km/h (3 Bft) 93,62 %
18.03.2019 03:24 2,7 C 2,2 C 1,7 C 92 % 1009,8 hPa 0,0 l/m 0 min 0 min 0 W/m 12,9 km/h (3 Bft) 95,74 %
18.03.2019 03:26 2,7 C 2,2 C 1,7 C 92 % 1009,8 hPa 0,0 l/m 0 min 0 min 0 W/m 9,7 km/h (2 Bft) 95,74 %
18.03.2019 03:28 2,7 C 2,2 C 1,7 C 92 % 1009,9 hPa 0,0 l/m 0 min 0 min 0 W/m 16,1 km/h (3 Bft) 93,48 %
18.03.2019 03:30 2,7 C 2,2 C 1,7 C 92 % 1009,8 hPa 0,0 l/m 0 min 0 min 0 W/m 9,7 km/h (2 Bft) 97,87 %
18.03.2019 03:32 2,7 C 2,2 C 1,7 C 92 % 1009,7 hPa 0,0 l/m 0 min 0 min 0 W/m 12,9 km/h (3 Bft) 97,87 %
18.03.2019 03:34 2,7 C 2,2 C 1,7 C 92 % 1009,7 hPa 0,0 l/m 0 min 0 min 0 W/m 16,1 km/h (3 Bft) 95,74 %
18.03.2019 03:36 2,7 C 2,2 C 1,7 C 92 % 1009,7 hPa 0,0 l/m 0 min 0 min 0 W/m 9,7 km/h (2 Bft) 95,74 %
18.03.2019 03:38 2,7 C 2,2 C 1,7 C 92 % 1009,7 hPa 0,0 l/m 0 min 0 min 0 W/m 6,4 km/h (2 Bft) 95,74 %
18.03.2019 03:40 2,7 C 2,2 C 1,7 C 92 % 1009,8 hPa 0,0 l/m 0 min 0 min 0 W/m 16,1 km/h (3 Bft) 97,83 %
18.03.2019 03:42 2,7 C 2,2 C 1,7 C 92 % 1009,8 hPa 0,0 l/m 0 min 0 min 0 W/m 16,1 km/h (3 Bft) 97,87 %
18.03.2019 03:44 2,7 C 2,2 C 1,7 C 92 % 1009,9 hPa 0,0 l/m 0 min 0 min 0 W/m 16,1 km/h (3 Bft) 97,87 %
18.03.2019 03:46 2,7 C 2,2 C 1,7 C 92 % 1009,9 hPa 0,0 l/m 0 min 0 min 0 W/m 12,9 km/h (3 Bft) 97,87 %
18.03.2019 03:48 2,7 C 2,2 C 1,7 C 92 % 1010,0 hPa 0,0 l/m 0 min 0 min 0 W/m 19,3 km/h (3 Bft) 95,74 %
18.03.2019 03:50 2,8 C 2,2 C 1,7 C 92 % 1010,0 hPa 0,0 l/m 0 min 0 min 0 W/m 12,9 km/h (3 Bft) 95,74 %
18.03.2019 03:52 2,8 C 2,2 C 1,7 C 92 % 1009,9 hPa 0,0 l/m 0 min 0 min 0 W/m 16,1 km/h (3 Bft) 93,48 %
18.03.2019 03:54 2,8 C 2,2 C 1,7 C 92 % 1010,1 hPa 0,0 l/m 0 min 0 min 0 W/m 12,9 km/h (3 Bft) 97,87 %
18.03.2019 03:56 2,8 C 2,8 C 2,2 C 92 % 1010,1 hPa 0,0 l/m 0 min 0 min 0 W/m 16,1 km/h (3 Bft) 97,87 %
18.03.2019 03:58 2,8 C 2,8 C 2,2 C 92 % 1010,2 hPa 0,0 l/m 0 min 0 min 0 W/m 6,4 km/h (2 Bft) 97,87 %
18.03.2019 04:00 2,8 C 2,8 C 2,2 C 92 % 1010,2 hPa 0,0 l/m 0 min 0 min 0 W/m 9,7 km/h (2 Bft) 97,87 %
18.03.2019 04:04 2,9 C 2,8 C 2,2 C 92 % 1010,2 hPa 0,0 l/m 0 min 0 min 0 W/m 9,7 km/h (2 Bft) 97,44 %
18.03.2019 04:06 2,9 C 2,8 C 2,2 C 92 % 1010,3 hPa 0,0 l/m 0 min 0 min 0 W/m 6,4 km/h (2 Bft) 100,00 %
18.03.2019 04:08 2,9 C 2,8 C 2,2 C 92 % 1010,3 hPa 0,0 l/m 0 min 2 min 0 W/m 9,7 km/h (2 Bft) 100,00 %
18.03.2019 04:10 2,9 C 2,8 C 2,2 C 92 % 1010,3 hPa 0,0 l/m 0 min 2 min 0 W/m 9,7 km/h (2 Bft) 100,00 %
18.03.2019 04:12 2,9 C 2,8 C 1,7 C 92 % 1010,4 hPa 0,0 l/m 0 min 2 min 0 W/m 16,1 km/h (3 Bft) 100,00 %
18.03.2019 04:14 3,0 C 2,2 C 1,7 C 92 % 1010,6 hPa 0,0 l/m 0 min 2 min 0 W/m 9,7 km/h (2 Bft) 97,87 %
18.03.2019 04:16 3,0 C 2,2 C 1,7 C 92 % 1010,6 hPa 0,0 l/m 0 min 2 min 0 W/m 16,1 km/h (3 Bft) 100,00 %
18.03.2019 04:18 3,0 C 2,2 C 1,7 C 92 % 1010,6 hPa 0,0 l/m 0 min 2 min 0 W/m 16,1 km/h (3 Bft) 100,00 %
18.03.2019 04:20 3,1 C 2,2 C 1,7 C 92 % 1010,6 hPa 0,0 l/m 0 min 2 min 0 W/m 9,7 km/h (2 Bft) 100,00 %
18.03.2019 04:22 3,1 C 2,2 C 1,7 C 92 % 1010,6 hPa 0,2 l/m 0 min 2 min 0 W/m 16,1 km/h (3 Bft) 100,00 %
18.03.2019 04:24 3,1 C 2,2 C 1,7 C 92 % 1010,6 hPa 0,0 l/m 0 min 2 min 0 W/m 6,4 km/h (2 Bft) 100,00 %
18.03.2019 04:26 3,1 C 2,2 C 1,7 C 92 % 1010,7 hPa 0,0 l/m 0 min 2 min 0 W/m 6,4 km/h (2 Bft) 97,83 %
18.03.2019 04:28 3,1 C 2,2 C 1,7 C 92 % 1010,7 hPa 0,0 l/m 0 min 2 min 0 W/m 9,7 km/h (2 Bft) 100,00 %
18.03.2019 04:30 3,1 C 2,2 C 1,7 C 92 % 1010,7 hPa 0,2 l/m 0 min 2 min 0 W/m 9,7 km/h (2 Bft) 100,00 %
18.03.2019 04:32 3,1 C 2,2 C 1,7 C 92 % 1010,6 hPa 0,0 l/m 0 min 2 min 0 W/m 12,9 km/h (3 Bft) 100,00 %
18.03.2019 04:34 3,1 C 2,2 C 1,7 C 92 % 1010,7 hPa 0,0 l/m 0 min 2 min 0 W/m 9,7 km/h (2 Bft) 100,00 %
18.03.2019 04:36 3,1 C 2,2 C 1,7 C 92 % 1010,7 hPa 0,0 l/m 0 min 2 min 0 W/m 6,4 km/h (2 Bft) 100,00 %
18.03.2019 04:38 3,1 C 2,2 C 1,7 C 92 % 1010,7 hPa 0,0 l/m 0 min 2 min 0 W/m 12,9 km/h (3 Bft) 100,00 %
18.03.2019 04:40 3,1 C 2,2 C 1,7 C 92 % 1010,7 hPa 0,0 l/m 0 min 2 min 0 W/m 12,9 km/h (3 Bft) 100,00 %
18.03.2019 04:42 3,1 C 2,2 C 1,7 C 92 % 1010,7 hPa 0,2 l/m 0 min 2 min 0 W/m 9,7 km/h (2 Bft) 100,00 %
18.03.2019 04:44 3,1 C 2,2 C 1,7 C 93 % 1010,7 hPa 0,0 l/m 0 min 2 min 0 W/m 9,7 km/h (2 Bft) 100,00 %
18.03.2019 04:46 3,1 C 2,2 C 1,7 C 93 % 1010,7 hPa 0,0 l/m 0 min 2 min 0 W/m 12,9 km/h (3 Bft) 97,87 %
18.03.2019 04:48 3,1 C 2,2 C 1,7 C 93 % 1010,7 hPa 0,0 l/m 0 min 2 min 0 W/m 9,7 km/h (2 Bft) 100,00 %
18.03.2019 04:50 3,1 C 2,2 C 1,7 C 93 % 1010,7 hPa 0,0 l/m 0 min 2 min 0 W/m 16,1 km/h (3 Bft) 100,00 %
18.03.2019 04:52 3,1 C 2,2 C 1,7 C 93 % 1010,7 hPa 0,0 l/m 0 min 2 min 0 W/m 12,9 km/h (3 Bft) 97,87 %
18.03.2019 04:54 3,1 C 2,2 C 1,7 C 93 % 1010,6 hPa 0,0 l/m 0 min 2 min 0 W/m 9,7 km/h (2 Bft) 100,00 %
18.03.2019 04:56 3,1 C 2,2 C 1,7 C 93 % 1010,8 hPa 0,0 l/m 0 min 2 min 0 W/m 12,9 km/h (3 Bft) 97,87 %
18.03.2019 04:58 3,1 C 2,2 C 1,7 C 93 % 1010,7 hPa 0,0 l/m 0 min 0 min 0 W/m 19,3 km/h (3 Bft) 100,00 %
18.03.2019 05:00 3,1 C 2,2 C 1,7 C 93 % 1010,8 hPa 0,0 l/m 0 min 2 min 0 W/m 9,7 km/h (2 Bft) 100,00 %
18.03.2019 05:02 3,1 C 2,2 C 1,7 C 93 % 1010,8 hPa 0,0 l/m 0 min 2 min 0 W/m 9,7 km/h (2 Bft) 97,83 %
18.03.2019 05:04 3,1 C 2,2 C 1,7 C 93 % 1010,8 hPa 0,0 l/m 0 min 0 min 0 W/m 9,7 km/h (2 Bft) 100,00 %
18.03.2019 05:05 3,1 C 2,2 C 1,7 C 93 % 1010,9 hPa 0,0 l/m 0 min 1 min 0 W/m 9,7 km/h (2 Bft) 100,00 %
18.03.2019 05:10 3,1 C 2,2 C 1,7 C 93 % 1010,9 hPa 0,0 l/m 0 min 5 min 0 W/m 9,7 km/h (2 Bft) 100,00 %
18.03.2019 05:12 3,1 C 2,2 C 1,7 C 93 % 1010,9 hPa 0,0 l/m 0 min 2 min 0 W/m 9,7 km/h (2 Bft) 97,06 %
18.03.2019 05:14 3,1 C 2,2 C 1,7 C 93 % 1011,0 hPa 0,0 l/m 0 min 2 min 0 W/m 9,7 km/h (2 Bft) 97,37 %
18.03.2019 05:19 3,0 C 2,2 C 1,7 C 94 % 1011,0 hPa 0,0 l/m 0 min 5 min 0 W/m 9,7 km/h (2 Bft) 92,31 %
18.03.2019 05:20 3,0 C 2,2 C 1,7 C 94 % 1011,0 hPa 0,0 l/m 0 min 1 min 0 W/m 9,7 km/h (2 Bft) 100,00 %
18.03.2019 05:22 3,0 C 2,2 C 1,7 C 94 % 1011,1 hPa 0,0 l/m 0 min 0 min 0 W/m 9,7 km/h (2 Bft) 97,87 %
18.03.2019 05:24 3,1 C 2,2 C 1,7 C 94 % 1011,2 hPa 0,0 l/m 0 min 2 min 0 W/m 9,7 km/h (2 Bft) 97,87 %
18.03.2019 05:26 3,0 C 2,2 C 1,7 C 94 % 1011,1 hPa 0,0 l/m 0 min 0 min 0 W/m 6,4 km/h (2 Bft) 95,74 %
18.03.2019 05:28 3,1 C 2,2 C 1,7 C 94 % 1011,1 hPa 0,0 l/m 0 min 0 min 0 W/m 9,7 km/h (2 Bft) 97,83 %
18.03.2019 05:30 3,1 C 2,2 C 1,7 C 94 % 1011,2 hPa 0,0 l/m 0 min 0 min 0 W/m 16,1 km/h (3 Bft) 97,87 %
18.03.2019 05:32 3,1 C 2,2 C 1,7 C 94 % 1011,1 hPa 0,0 l/m 0 min 0 min 0 W/m 3,2 km/h (1 Bft) 95,74 %
18.03.2019 05:34 3,1 C 2,2 C 1,7 C 94 % 1011,1 hPa 0,0 l/m 0 min 0 min 0 W/m 9,7 km/h (2 Bft) 97,87 %
18.03.2019 05:36 3,1 C 2,2 C 1,7 C 94 % 1011,2 hPa 0,0 l/m 0 min 2 min 0 W/m 6,4 km/h (2 Bft) 97,87 %
18.03.2019 05:38 3,1 C 2,2 C 1,7 C 94 % 1011,2 hPa 0,0 l/m 0 min 0 min 0 W/m 16,1 km/h (3 Bft) 97,83 %
18.03.2019 05:40 3,1 C 2,2 C 1,7 C 94 % 1011,2 hPa 0,0 l/m 0 min 0 min 0 W/m 3,2 km/h (1 Bft) 95,74 %
18.03.2019 05:42 3,1 C 2,2 C 1,7 C 94 % 1011,3 hPa 0,0 l/m 0 min 0 min 0 W/m 9,7 km/h (2 Bft) 97,87 %
18.03.2019 05:44 3,1 C 2,2 C 1,7 C 94 % 1011,3 hPa 0,0 l/m 0 min 2 min 0 W/m 6,4 km/h (2 Bft) 97,87 %
18.03.2019 05:46 3,1 C 2,2 C 1,7 C 94 % 1011,4 hPa 0,0 l/m 0 min 0 min 0 W/m 0,0 km/h (0 Bft) 97,87 %
18.03.2019 05:48 3,1 C 2,2 C 1,7 C 94 % 1011,5 hPa 0,0 l/m 0 min 2 min 0 W/m 3,2 km/h (1 Bft) 97,87 %
18.03.2019 05:50 3,1 C 2,2 C 1,7 C 94 % 1011,4 hPa 0,0 l/m 0 min 0 min 0 W/m 0,0 km/h (0 Bft) 97,83 %
18.03.2019 05:52 3,1 C 2,2 C 2,2 C 94 % 1011,4 hPa 0,0 l/m 0 min 0 min 0 W/m 6,4 km/h (2 Bft) 97,87 %
18.03.2019 05:54 3,2 C 2,2 C 2,2 C 95 % 1011,5 hPa 0,0 l/m 0 min 0 min 0 W/m 3,2 km/h (1 Bft) 97,87 %
18.03.2019 05:56 3,2 C 2,2 C 2,2 C 95 % 1011,5 hPa 0,0 l/m 0 min 0 min 0 W/m 6,4 km/h (2 Bft) 97,87 %
18.03.2019 05:58 3,2 C 2,2 C 2,2 C 95 % 1011,5 hPa 0,0 l/m 0 min 0 min 0 W/m 3,2 km/h (1 Bft) 97,87 %
18.03.2019 06:00 3,2 C 2,8 C 2,2 C 95 % 1011,5 hPa 0,0 l/m 0 min 0 min 0 W/m 9,7 km/h (2 Bft) 95,74 %
18.03.2019 06:02 3,2 C 2,8 C 2,2 C 94 % 1011,6 hPa 0,0 l/m 0 min 0 min 0 W/m 6,4 km/h (2 Bft) 93,48 %
18.03.2019 06:04 3,2 C 2,8 C 2,2 C 95 % 1011,6 hPa 0,0 l/m 0 min 0 min 0 W/m 3,2 km/h (1 Bft) 95,74 %
18.03.2019 06:07 3,2 C 2,8 C 2,2 C 95 % 1011,6 hPa 0,0 l/m 0 min 0 min 0 W/m 9,7 km/h (2 Bft) 95,77 %
18.03.2019 06:08 3,2 C 2,8 C 2,2 C 95 % 1011,6 hPa 0,0 l/m 0 min 0 min 0 W/m 3,2 km/h (1 Bft) 95,65 %
18.03.2019 06:10 3,2 C 2,8 C 2,2 C 95 % 1011,7 hPa 0,0 l/m 0 min 0 min 0 W/m 3,2 km/h (1 Bft) 93,62 %
18.03.2019 06:12 3,2 C 2,2 C 2,2 C 95 % 1011,8 hPa 0,0 l/m 0 min 0 min 0 W/m 0,0 km/h (0 Bft) 95,74 %
18.03.2019 06:14 3,2 C 2,8 C 2,2 C 95 % 1011,9 hPa 0,0 l/m 0 min 0 min 0 W/m 3,2 km/h (1 Bft) 95,65 %
18.03.2019 06:16 3,3 C 2,2 C 2,2 C 95 % 1012,0 hPa 0,0 l/m 0 min 0 min 0 W/m 3,2 km/h (1 Bft) 91,49 %
18.03.2019 06:18 3,3 C 2,2 C 2,2 C 95 % 1011,9 hPa 0,0 l/m 0 min 0 min 0 W/m 0,0 km/h (0 Bft) 93,62 %
18.03.2019 06:20 3,3 C 2,2 C 1,7 C 95 % 1012,0 hPa 0,0 l/m 0 min 0 min 0 W/m 3,2 km/h (1 Bft) 95,74 %
18.03.2019 06:22 3,2 C 2,2 C 1,7 C 95 % 1012,1 hPa 0,0 l/m 0 min 0 min 0 W/m 9,7 km/h (2 Bft) 95,74 %
18.03.2019 06:24 3,2 C 2,2 C 1,7 C 95 % 1012,1 hPa 0,0 l/m 0 min 0 min 0 W/m 6,4 km/h (2 Bft) 95,74 %
18.03.2019 06:26 3,2 C 2,2 C 1,7 C 95 % 1012,1 hPa 0,0 l/m 0 min 0 min 0 W/m 3,2 km/h (1 Bft) 95,65 %
18.03.2019 06:28 3,2 C 2,2 C 1,7 C 95 % 1012,1 hPa 0,0 l/m 0 min 0 min 0 W/m 3,2 km/h (1 Bft) 93,62 %
18.03.2019 06:30 3,2 C 2,2 C 1,7 C 95 % 1012,2 hPa 0,0 l/m 0 min 0 min 0 W/m 9,7 km/h (2 Bft) 95,74 %
18.03.2019 06:32 3,2 C 2,2 C 1,7 C 95 % 1012,2 hPa 0,0 l/m 0 min 0 min 0 W/m 6,4 km/h (2 Bft) 95,74 %
18.03.2019 06:34 3,2 C 2,2 C 1,7 C 95 % 1012,3 hPa 0,0 l/m 0 min 0 min 0 W/m 3,2 km/h (1 Bft) 95,74 %
18.03.2019 06:36 3,2 C 2,2 C 1,7 C 95 % 1012,4 hPa 0,0 l/m 0 min 0 min 0 W/m 3,2 km/h (1 Bft) 95,74 %
18.03.2019 06:38 3,2 C 2,2 C 1,7 C 95 % 1012,3 hPa 0,0 l/m 0 min 2 min 0 W/m 12,9 km/h (3 Bft) 95,74 %
18.03.2019 06:40 3,2 C 2,2 C 2,2 C 95 % 1012,3 hPa 0,0 l/m 0 min 2 min 0 W/m 6,4 km/h (2 Bft) 93,62 %
18.03.2019 06:42 3,2 C 2,2 C 1,7 C 95 % 1012,3 hPa 0,0 l/m 0 min 2 min 0 W/m 3,2 km/h (1 Bft) 95,74 %
18.03.2019 06:44 3,2 C 2,2 C 1,7 C 95 % 1012,3 hPa 0,0 l/m 0 min 2 min 0 W/m 9,7 km/h (2 Bft) 93,62 %
18.03.2019 06:46 3,2 C 2,2 C 1,7 C 95 % 1012,3 hPa 0,0 l/m 0 min 2 min 2 W/m 3,2 km/h (1 Bft) 95,74 %
18.03.2019 06:48 3,2 C 2,2 C 1,7 C 95 % 1012,3 hPa 0,0 l/m 0 min 0 min 5 W/m 3,2 km/h (1 Bft) 95,65 %
18.03.2019 06:50 3,2 C 2,2 C 1,7 C 95 % 1012,4 hPa 0,0 l/m 0 min 2 min 5 W/m 6,4 km/h (2 Bft) 97,87 %
18.03.2019 06:52 3,2 C 2,2 C 1,7 C 95 % 1012,5 hPa 0,2 l/m 0 min 2 min 6 W/m 6,4 km/h (2 Bft) 97,87 %
18.03.2019 06:54 3,1 C 2,2 C 1,7 C 95 % 1012,5 hPa 0,0 l/m 0 min 0 min 7 W/m 3,2 km/h (1 Bft) 97,87 %
18.03.2019 06:56 3,1 C 2,2 C 1,7 C 95 % 1012,4 hPa 0,0 l/m 0 min 0 min 9 W/m 16,1 km/h (3 Bft) 95,74 %
18.03.2019 06:58 3,1 C 2,2 C 1,7 C 95 % 1012,6 hPa 0,0 l/m 0 min 2 min 11 W/m 6,4 km/h (2 Bft) 97,87 %
18.03.2019 07:00 3,1 C 2,2 C 1,7 C 95 % 1012,5 hPa 0,0 l/m 0 min 2 min 11 W/m 6,4 km/h (2 Bft) 97,83 %
18.03.2019 07:02 3,1 C 2,2 C 1,7 C 95 % 1012,5 hPa 0,0 l/m 0 min 0 min 12 W/m 0,0 km/h (0 Bft) 95,74 %
18.03.2019 07:04 3,1 C 2,2 C 1,7 C 95 % 1012,5 hPa 0,0 l/m 0 min 0 min 14 W/m 3,2 km/h (1 Bft) 97,87 %
18.03.2019 07:06 3,1 C 2,2 C 1,7 C 95 % 1012,6 hPa 0,0 l/m 0 min 0 min 18 W/m 3,2 km/h (1 Bft) 100,00 %
18.03.2019 07:08 3,0 C 2,2 C 1,7 C 95 % 1012,6 hPa 0,0 l/m 0 min 2 min 23 W/m 6,4 km/h (2 Bft) 100,00 %
18.03.2019 07:10 3,0 C 2,2 C 1,7 C 95 % 1012,6 hPa 0,0 l/m 0 min 2 min 26 W/m 9,7 km/h (2 Bft) 97,87 %
18.03.2019 07:12 3,0 C 2,2 C 1,7 C 95 % 1012,6 hPa 0,0 l/m 0 min 2 min 32 W/m 3,2 km/h (1 Bft) 97,83 %
18.03.2019 07:14 3,1 C 2,2 C 1,7 C 95 % 1012,6 hPa 0,0 l/m 0 min 2 min 33 W/m 6,4 km/h (2 Bft) 97,87 %
18.03.2019 07:16 3,1 C 2,2 C 1,7 C 95 % 1012,7 hPa 0,0 l/m 0 min 0 min 32 W/m 9,7 km/h (2 Bft) 100,00 %
18.03.2019 07:18 3,1 C 2,2 C 1,7 C 95 % 1012,8 hPa 0,0 l/m 0 min 0 min 32 W/m 9,7 km/h (2 Bft) 100,00 %
18.03.2019 07:20 3,1 C 2,2 C 1,7 C 95 % 1012,8 hPa 0,0 l/m 0 min 0 min 28 W/m 6,4 km/h (2 Bft) 100,00 %
18.03.2019 07:22 3,1 C 2,2 C 1,7 C 95 % 1012,9 hPa 0,0 l/m 0 min 0 min 27 W/m 3,2 km/h (1 Bft) 97,87 %
18.03.2019 07:24 3,1 C 2,2 C 1,7 C 95 % 1012,9 hPa 0,0 l/m 0 min 0 min 26 W/m 3,2 km/h (1 Bft) 100,00 %
18.03.2019 07:26 3,1 C 2,2 C 1,7 C 95 % 1013,0 hPa 0,0 l/m 0 min 0 min 26 W/m 9,7 km/h (2 Bft) 100,00 %
18.03.2019 07:28 3,1 C 2,2 C 1,7 C 95 % 1013,0 hPa 0,0 l/m 0 min 2 min 26 W/m 12,9 km/h (3 Bft) 100,00 %
18.03.2019 07:30 3,1 C 2,2 C 1,7 C 95 % 1013,0 hPa 0,0 l/m 0 min 2 min 26 W/m 16,1 km/h (3 Bft) 97,87 %
18.03.2019 07:32 3,1 C 2,2 C 1,7 C 95 % 1013,1 hPa 0,0 l/m 0 min 2 min 24 W/m 6,4 km/h (2 Bft) 97,87 %
18.03.2019 07:34 3,1 C 2,2 C 1,7 C 95 % 1013,0 hPa 0,0 l/m 0 min 2 min 20 W/m 16,1 km/h (3 Bft) 100,00 %
18.03.2019 07:36 3,1 C 2,2 C 2,2 C 95 % 1013,1 hPa 0,0 l/m 0 min 0 min 18 W/m 6,4 km/h (2 Bft) 100,00 %
18.03.2019 07:38 3,1 C 2,2 C 1,7 C 95 % 1013,1 hPa 0,0 l/m 0 min 0 min 18 W/m 6,4 km/h (2 Bft) 100,00 %
18.03.2019 07:40 3,1 C 2,2 C 1,7 C 95 % 1013,1 hPa 0,0 l/m 0 min 0 min 22 W/m 3,2 km/h (1 Bft) 97,87 %
18.03.2019 07:42 3,1 C 2,2 C 1,7 C 95 % 1013,1 hPa 0,0 l/m 0 min 0 min 38 W/m 6,4 km/h (2 Bft) 95,74 %
18.03.2019 07:44 3,1 C 2,2 C 1,7 C 95 % 1013,2 hPa 0,0 l/m 0 min 2 min 72 W/m 16,1 km/h (3 Bft) 100,00 %
18.03.2019 07:46 3,1 C 2,8 C 2,2 C 95 % 1013,3 hPa 0,0 l/m 2 min 2 min 90 W/m 3,2 km/h (1 Bft) 97,87 %
18.03.2019 07:48 3,2 C 2,8 C 2,2 C 95 % 1013,3 hPa 0,0 l/m 0 min 2 min 48 W/m 6,4 km/h (2 Bft) 97,83 %
18.03.2019 07:50 3,2 C 2,8 C 2,2 C 95 % 1013,3 hPa 0,0 l/m 0 min 0 min 28 W/m 16,1 km/h (3 Bft) 97,87 %
18.03.2019 07:52 3,2 C 2,2 C 2,2 C 95 % 1013,4 hPa 0,0 l/m 0 min 0 min 25 W/m 9,7 km/h (2 Bft) 97,87 %
18.03.2019 07:54 3,2 C 2,2 C 1,7 C 95 % 1013,4 hPa 0,0 l/m 0 min 0 min 25 W/m 3,2 km/h (1 Bft) 97,87 %
18.03.2019 07:56 3,2 C 2,2 C 1,7 C 95 % 1013,3 hPa 0,0 l/m 0 min 0 min 28 W/m 6,4 km/h (2 Bft) 97,87 %
18.03.2019 07:58 3,2 C 2,2 C 1,7 C 95 % 1013,2 hPa 0,0 l/m 0 min 0 min 34 W/m 12,9 km/h (3 Bft) 97,83 %
18.03.2019 08:00 3,1 C 2,2 C 2,2 C 95 % 1013,2 hPa 0,0 l/m 0 min 0 min 42 W/m 12,9 km/h (3 Bft) 97,87 %
18.03.2019 08:02 3,2 C 2,8 C 2,2 C 95 % 1013,3 hPa 0,0 l/m 0 min 0 min 46 W/m 6,4 km/h (2 Bft) 95,74 %
18.03.2019 08:04 3,2 C 2,8 C 2,2 C 95 % 1013,3 hPa 0,0 l/m 0 min 0 min 47 W/m 12,9 km/h (3 Bft) 97,87 %
18.03.2019 08:06 3,2 C 2,8 C 2,2 C 95 % 1013,4 hPa 0,0 l/m 0 min 0 min 44 W/m 6,4 km/h (2 Bft) 97,87 %
18.03.2019 08:08 3,2 C 2,8 C 2,2 C 95 % 1013,4 hPa 0,0 l/m 0 min 0 min 42 W/m 6,4 km/h (2 Bft) 95,74 %
18.03.2019 08:10 3,2 C 2,8 C 2,2 C 95 % 1013,5 hPa 0,0 l/m 0 min 0 min 40 W/m 3,2 km/h (1 Bft) 97,83 %
18.03.2019 08:12 3,2 C 2,8 C 2,2 C 95 % 1013,4 hPa 0,0 l/m 0 min 2 min 39 W/m 6,4 km/h (2 Bft) 95,74 %
18.03.2019 08:14 3,2 C 2,8 C 2,2 C 95 % 1013,4 hPa 0,0 l/m 0 min 2 min 41 W/m 6,4 km/h (2 Bft) 97,87 %
18.03.2019 08:16 3,3 C 2,8 C 2,2 C 95 % 1013,4 hPa 0,0 l/m 0 min 2 min 44 W/m 9,7 km/h (2 Bft) 93,62 %
18.03.2019 08:18 3,3 C 2,8 C 2,2 C 95 % 1013,5 hPa 0,0 l/m 0 min 0 min 45 W/m 6,4 km/h (2 Bft) 97,87 %
18.03.2019 08:20 3,3 C 2,8 C 2,2 C 95 % 1013,5 hPa 0,0 l/m 0 min 0 min 45 W/m 9,7 km/h (2 Bft) 97,87 %
18.03.2019 08:22 3,3 C 3,3 C 2,2 C 95 % 1013,4 hPa 0,0 l/m 0 min 2 min 45 W/m 22,5 km/h (4 Bft) 97,83 %
18.03.2019 08:24 3,4 C 3,3 C 2,2 C 95 % 1013,5 hPa 0,0 l/m 0 min 0 min 47 W/m 6,4 km/h (2 Bft) 97,87 %
18.03.2019 08:26 3,4 C 3,3 C 2,8 C 96 % 1013,5 hPa 0,0 l/m 0 min 0 min 49 W/m 9,7 km/h (2 Bft) 97,87 %
18.03.2019 08:28 3,4 C 3,3 C 2,8 C 96 % 1013,5 hPa 0,0 l/m 0 min 0 min 49 W/m 6,4 km/h (2 Bft) 97,87 %
18.03.2019 08:30 3,5 C 3,3 C 2,8 C 96 % 1013,6 hPa 0,0 l/m 0 min 0 min 50 W/m 3,2 km/h (1 Bft) 97,87 %
18.03.2019 08:32 3,6 C 3,3 C 2,8 C 96 % 1013,6 hPa 0,0 l/m 0 min 0 min 50 W/m 6,4 km/h (2 Bft) 100,00 %
18.03.2019 08:34 3,6 C 3,3 C 2,8 C 96 % 1013,7 hPa 0,0 l/m 0 min 0 min 48 W/m 3,2 km/h (1 Bft) 100,00 %
18.03.2019 08:36 3,6 C 3,3 C 2,8 C 95 % 1013,7 hPa 0,0 l/m 0 min 0 min 48 W/m 9,7 km/h (2 Bft) 97,87 %
18.03.2019 08:38 3,7 C 3,3 C 2,8 C 95 % 1013,7 hPa 0,0 l/m 0 min 0 min 50 W/m 9,7 km/h (2 Bft) 100,00 %
18.03.2019 08:40 3,7 C 3,9 C 2,8 C 95 % 1013,9 hPa 0,0 l/m 0 min 0 min 51 W/m 9,7 km/h (2 Bft) 100,00 %
18.03.2019 08:42 3,7 C 3,9 C 2,8 C 95 % 1013,9 hPa 0,0 l/m 0 min 2 min 54 W/m 6,4 km/h (2 Bft) 97,87 %
18.03.2019 08:44 3,8 C 3,9 C 2,8 C 95 % 1014,0 hPa 0,0 l/m 0 min 0 min 62 W/m 6,4 km/h (2 Bft) 97,87 %
18.03.2019 08:46 3,8 C 3,9 C 2,8 C 96 % 1014,0 hPa 0,0 l/m 0 min 0 min 63 W/m 6,4 km/h (2 Bft) 95,65 %
18.03.2019 08:48 3,9 C 3,9 C 3,3 C 96 % 1014,1 hPa 0,0 l/m 0 min 0 min 60 W/m 9,7 km/h (2 Bft) 97,87 %
18.03.2019 08:50 3,9 C 3,9 C 3,3 C 96 % 1014,0 hPa 0,0 l/m 0 min 0 min 109 W/m 9,7 km/h (2 Bft) 97,87 %
18.03.2019 08:52 4,0 C 3,9 C 3,3 C 96 % 1014,0 hPa 0,0 l/m 2 min 0 min 227 W/m 9,7 km/h (2 Bft) 97,87 %
18.03.2019 08:54 4,0 C 5,6 C 3,3 C 95 % 1014,0 hPa 0,0 l/m 2 min 2 min 270 W/m 9,7 km/h (2 Bft) 97,87 %
18.03.2019 08:56 4,1 C 6,1 C 3,3 C 95 % 1014,0 hPa 0,0 l/m 2 min 2 min 281 W/m 6,4 km/h (2 Bft) 97,87 %
18.03.2019 08:58 4,1 C 7,2 C 3,3 C 95 % 1014,1 hPa 0,0 l/m 2 min 2 min 287 W/m 9,7 km/h (2 Bft) 97,83 %
18.03.2019 09:00 4,2 C 7,8 C 3,3 C 96 % 1014,1 hPa 0,0 l/m 2 min 0 min 297 W/m 12,9 km/h (3 Bft) 95,74 %
18.03.2019 09:02 4,3 C 7,2 C 3,3 C 96 % 1014,1 hPa 0,0 l/m 2 min 0 min 304 W/m 12,9 km/h (3 Bft) 97,87 %
18.03.2019 09:04 4,4 C 8,3 C 3,3 C 96 % 1014,2 hPa 0,0 l/m 2 min 2 min 315 W/m 16,1 km/h (3 Bft) 95,74 %
18.03.2019 09:06 4,5 C 7,2 C 3,3 C 96 % 1014,2 hPa 0,0 l/m 2 min 0 min 324 W/m 16,1 km/h (3 Bft) 97,87 %
18.03.2019 09:08 4,6 C 8,3 C 3,9 C 96 % 1014,2 hPa 0,0 l/m 2 min 0 min 333 W/m 19,3 km/h (3 Bft) 95,65 %
18.03.2019 09:10 4,7 C 7,2 C 3,9 C 96 % 1014,3 hPa 0,0 l/m 2 min 0 min 346 W/m 16,1 km/h (3 Bft) 97,87 %
18.03.2019 09:12 4,8 C 7,2 C 3,9 C 96 % 1014,3 hPa 0,0 l/m 2 min 0 min 330 W/m 12,9 km/h (3 Bft) 95,74 %
18.03.2019 09:14 4,9 C 7,2 C 3,9 C 96 % 1014,4 hPa 0,0 l/m 2 min 0 min 353 W/m 22,5 km/h (4 Bft) 97,87 %
18.03.2019 09:16 4,9 C 7,8 C 5,0 C 96 % 1014,4 hPa 0,0 l/m 2 min 2 min 370 W/m 25,7 km/h (4 Bft) 97,87 %
18.03.2019 09:18 5,1 C 8,3 C 6,1 C 95 % 1014,6 hPa 0,0 l/m 2 min 0 min 388 W/m 19,3 km/h (3 Bft) 95,74 %
18.03.2019 09:20 5,2 C 8,3 C 6,1 C 95 % 1014,5 hPa 0,0 l/m 2 min 0 min 392 W/m 22,5 km/h (4 Bft) 97,83 %
18.03.2019 09:22 5,2 C 7,8 C 5,6 C 95 % 1014,5 hPa 0,0 l/m 2 min 0 min 370 W/m 19,3 km/h (3 Bft) 97,87 %
18.03.2019 09:24 5,3 C 7,8 C 5,6 C 95 % 1014,5 hPa 0,0 l/m 2 min 0 min 360 W/m 9,7 km/h (2 Bft) 97,87 %
18.03.2019 09:26 5,4 C 7,2 C 6,1 C 95 % 1014,6 hPa 0,0 l/m 0 min 0 min 182 W/m 22,5 km/h (4 Bft) 97,87 %
18.03.2019 09:28 5,5 C 8,9 C 7,2 C 94 % 1014,6 hPa 0,0 l/m 2 min 0 min 372 W/m 16,1 km/h (3 Bft) 95,74 %
18.03.2019 09:30 5,6 C 8,9 C 7,2 C 94 % 1014,6 hPa 0,0 l/m 2 min 0 min 429 W/m 12,9 km/h (3 Bft) 97,87 %
18.03.2019 09:32 5,7 C 9,4 C 6,7 C 94 % 1014,5 hPa 0,0 l/m 2 min 0 min 305 W/m 16,1 km/h (3 Bft) 97,83 %
18.03.2019 09:34 5,8 C 7,8 C 6,1 C 93 % 1014,6 hPa 0,0 l/m 0 min 0 min 196 W/m 16,1 km/h (3 Bft) 98,00 %
18.03.2019 09:36 5,9 C 8,3 C 6,7 C 93 % 1014,6 hPa 0,0 l/m 0 min 0 min 153 W/m 16,1 km/h (3 Bft) 97,87 %
18.03.2019 09:38 5,9 C 8,9 C 7,2 C 93 % 1014,7 hPa 0,0 l/m 2 min 0 min 410 W/m 16,1 km/h (3 Bft) 97,87 %
18.03.2019 09:40 6,0 C 9,4 C 7,8 C 92 % 1014,7 hPa 0,0 l/m 2 min 0 min 426 W/m 9,7 km/h (2 Bft) 93,62 %
18.03.2019 09:42 6,1 C 9,4 C 7,8 C 92 % 1014,7 hPa 0,0 l/m 2 min 0 min 426 W/m 12,9 km/h (3 Bft) 97,83 %
18.03.2019 09:44 6,2 C 10,0 C 7,8 C 91 % 1014,7 hPa 0,0 l/m 2 min 0 min 429 W/m 16,1 km/h (3 Bft) 97,87 %
18.03.2019 09:46 6,3 C 10,6 C 8,3 C 90 % 1014,7 hPa 0,0 l/m 2 min 0 min 438 W/m 12,9 km/h (3 Bft) 97,87 %
18.03.2019 09:48 6,4 C 11,1 C 8,9 C 90 % 1014,8 hPa 0,0 l/m 2 min 0 min 442 W/m 12,9 km/h (3 Bft) 97,87 %
18.03.2019 09:50 6,6 C 10,6 C 8,9 C 90 % 1014,9 hPa 0,0 l/m 2 min 0 min 480 W/m 12,9 km/h (3 Bft) 97,87 %
18.03.2019 09:52 6,7 C 10,6 C 8,3 C 89 % 1014,8 hPa 0,0 l/m 2 min 0 min 525 W/m 16,1 km/h (3 Bft) 97,87 %
18.03.2019 09:54 6,7 C 9,4 C 7,2 C 88 % 1014,8 hPa 0,0 l/m 2 min 0 min 229 W/m 9,7 km/h (2 Bft) 97,83 %
18.03.2019 09:56 6,7 C 7,8 C 6,1 C 87 % 1014,8 hPa 0,0 l/m 0 min 0 min 160 W/m 22,5 km/h (4 Bft) 97,87 %
18.03.2019 09:58 6,7 C 8,3 C 6,1 C 87 % 1014,8 hPa 0,0 l/m 2 min 0 min 279 W/m 9,7 km/h (2 Bft) 97,87 %
18.03.2019 10:00 6,8 C 9,4 C 6,7 C 86 % 1014,9 hPa 0,0 l/m 2 min 0 min 304 W/m 9,7 km/h (2 Bft) 97,87 %
18.03.2019 10:02 6,8 C 11,7 C 8,3 C 86 % 1015,0 hPa 0,0 l/m 2 min 0 min 454 W/m 12,9 km/h (3 Bft) 97,87 %
18.03.2019 10:04 6,9 C 11,1 C 7,8 C 86 % 1015,0 hPa 0,0 l/m 2 min 0 min 354 W/m 16,1 km/h (3 Bft) 95,74 %
18.03.2019 10:06 6,9 C 12,2 C 8,3 C 86 % 1015,1 hPa 0,0 l/m 2 min 0 min 365 W/m 12,9 km/h (3 Bft) 97,83 %
18.03.2019 10:08 7,1 C 12,8 C 8,9 C 86 % 1015,1 hPa 0,0 l/m 2 min 0 min 540 W/m 19,3 km/h (3 Bft) 100,00 %
18.03.2019 10:10 7,2 C 13,9 C 9,4 C 86 % 1015,1 hPa 0,0 l/m 2 min 0 min 539 W/m 12,9 km/h (3 Bft) 100,00 %
18.03.2019 10:12 7,3 C 12,8 C 8,9 C 85 % 1015,1 hPa 0,0 l/m 2 min 0 min 483 W/m 12,9 km/h (3 Bft) 100,00 %
18.03.2019 10:14 7,4 C 11,7 C 8,9 C 85 % 1015,1 hPa 0,0 l/m 2 min 0 min 443 W/m 16,1 km/h (3 Bft) 100,00 %
18.03.2019 10:16 7,4 C 10,6 C 7,8 C 84 % 1015,2 hPa 0,0 l/m 0 min 0 min 227 W/m 16,1 km/h (3 Bft) 97,87 %
18.03.2019 10:18 7,4 C 11,1 C 7,2 C 84 % 1015,2 hPa 0,0 l/m 2 min 0 min 412 W/m 16,1 km/h (3 Bft) 100,00 %
18.03.2019 10:20 7,5 C 12,8 C 7,2 C 84 % 1015,2 hPa 0,0 l/m 2 min 0 min 531 W/m 16,1 km/h (3 Bft) 97,87 %
18.03.2019 10:22 7,6 C 13,3 C 7,2 C 84 % 1015,2 hPa 0,0 l/m 2 min 0 min 550 W/m 16,1 km/h (3 Bft) 100,00 %
18.03.2019 10:24 7,7 C 13,9 C 7,2 C 84 % 1015,3 hPa 0,0 l/m 2 min 0 min 595 W/m 19,3 km/h (3 Bft) 100,00 %
18.03.2019 10:26 7,7 C 12,8 C 6,7 C 84 % 1015,3 hPa 0,0 l/m 2 min 0 min 594 W/m 22,5 km/h (4 Bft) 100,00 %
18.03.2019 10:28 7,7 C 12,8 C 6,7 C 83 % 1015,3 hPa 0,0 l/m 2 min 0 min 581 W/m 16,1 km/h (3 Bft) 100,00 %
18.03.2019 10:30 7,8 C 13,3 C 7,2 C 83 % 1015,3 hPa 0,0 l/m 2 min 0 min 646 W/m 9,7 km/h (2 Bft) 100,00 %
18.03.2019 10:32 7,9 C 14,4 C 7,8 C 83 % 1015,3 hPa 0,0 l/m 2 min 0 min 688 W/m 12,9 km/h (3 Bft) 95,74 %
18.03.2019 10:34 7,9 C 11,1 C 6,7 C 82 % 1015,4 hPa 0,0 l/m 2 min 0 min 671 W/m 19,3 km/h (3 Bft) 100,00 %
18.03.2019 10:36 7,9 C 11,7 C 7,2 C 82 % 1015,4 hPa 0,0 l/m 2 min 0 min 323 W/m 19,3 km/h (3 Bft) 97,87 %
18.03.2019 10:38 8,0 C 13,3 C 7,2 C 81 % 1015,4 hPa 0,0 l/m 2 min 0 min 679 W/m 16,1 km/h (3 Bft) 100,00 %
18.03.2019 10:40 8,1 C 12,8 C 7,2 C 81 % 1015,4 hPa 0,0 l/m 2 min 0 min 643 W/m 12,9 km/h (3 Bft) 100,00 %
18.03.2019 10:42 8,1 C 11,7 C 7,2 C 81 % 1015,5 hPa 0,0 l/m 2 min 0 min 594 W/m 16,1 km/h (3 Bft) 97,83 %
18.03.2019 10:44 8,1 C 11,1 C 6,7 C 81 % 1015,4 hPa 0,0 l/m 0 min 0 min 240 W/m 12,9 km/h (3 Bft) 100,00 %
18.03.2019 10:46 8,1 C 10,6 C 6,7 C 80 % 1015,4 hPa 0,0 l/m 0 min 0 min 176 W/m 16,1 km/h (3 Bft) 95,74 %
18.03.2019 10:48 8,1 C 10,6 C 6,7 C 80 % 1015,5 hPa 0,0 l/m 0 min 0 min 188 W/m 16,1 km/h (3 Bft) 97,87 %
18.03.2019 10:50 8,0 C 10,6 C 7,2 C 80 % 1015,4 hPa 0,0 l/m 0 min 0 min 222 W/m 16,1 km/h (3 Bft) 97,87 %
18.03.2019 10:52 8,0 C 10,6 C 7,2 C 79 % 1015,4 hPa 0,0 l/m 2 min 0 min 346 W/m 12,9 km/h (3 Bft) 97,87 %
18.03.2019 10:54 8,0 C 10,0 C 7,8 C 79 % 1015,4 hPa 0,0 l/m 2 min 0 min 364 W/m 12,9 km/h (3 Bft) 95,65 %
18.03.2019 10:56 8,1 C 10,0 C 7,8 C 80 % 1015,4 hPa 0,0 l/m 2 min 0 min 284 W/m 12,9 km/h (3 Bft) 95,74 %
18.03.2019 10:58 8,0 C 9,4 C 7,8 C 80 % 1015,4 hPa 0,0 l/m 0 min 0 min 268 W/m 12,9 km/h (3 Bft) 97,87 %
18.03.2019 11:00 8,0 C 10,0 C 7,8 C 80 % 1015,5 hPa 0,0 l/m 2 min 0 min 341 W/m 9,7 km/h (2 Bft) 97,87 %
18.03.2019 11:02 8,0 C 10,0 C 8,3 C 80 % 1015,4 hPa 0,0 l/m 2 min 0 min 319 W/m 16,1 km/h (3 Bft) 97,87 %
18.03.2019 11:04 8,0 C 10,0 C 8,3 C 80 % 1015,4 hPa 0,0 l/m 2 min 0 min 303 W/m 9,7 km/h (2 Bft) 95,65 %
18.03.2019 11:06 8,0 C 9,4 C 8,3 C 79 % 1015,5 hPa 0,0 l/m 0 min 0 min 270 W/m 12,9 km/h (3 Bft) 97,87 %
18.03.2019 11:08 8,0 C 8,9 C 8,3 C 79 % 1015,5 hPa 0,0 l/m 0 min 0 min 247 W/m 25,7 km/h (4 Bft) 97,87 %
18.03.2019 11:10 8,0 C 9,4 C 8,3 C 79 % 1015,5 hPa 0,0 l/m 0 min 0 min 243 W/m 19,3 km/h (3 Bft) 97,87 %
18.03.2019 11:12 7,9 C 8,9 C 8,3 C 79 % 1015,5 hPa 0,0 l/m 0 min 0 min 238 W/m 19,3 km/h (3 Bft) 97,87 %
18.03.2019 11:14 7,9 C 8,9 C 8,3 C 79 % 1015,5 hPa 0,0 l/m 0 min 0 min 255 W/m 19,3 km/h (3 Bft) 97,87 %
18.03.2019 11:16 7,9 C 8,9 C 7,8 C 79 % 1015,7 hPa 0,0 l/m 0 min 0 min 268 W/m 22,5 km/h (4 Bft) 97,83 %
18.03.2019 11:18 7,9 C 9,4 C 8,3 C 79 % 1015,6 hPa 0,0 l/m 2 min 0 min 293 W/m 12,9 km/h (3 Bft) 97,87 %
18.03.2019 11:20 7,9 C 9,4 C 8,3 C 79 % 1015,5 hPa 0,0 l/m 2 min 0 min 320 W/m 16,1 km/h (3 Bft) 97,87 %
18.03.2019 11:22 7,9 C 10,6 C 8,9 C 80 % 1015,6 hPa 0,0 l/m 2 min 0 min 329 W/m 19,3 km/h (3 Bft) 95,74 %
18.03.2019 11:24 7,9 C 10,0 C 8,9 C 80 % 1015,7 hPa 0,0 l/m 2 min 0 min 310 W/m 29,0 km/h (5 Bft) 97,87 %
18.03.2019 11:26 8,0 C 10,0 C 8,3 C 79 % 1015,6 hPa 0,0 l/m 2 min 0 min 293 W/m 16,1 km/h (3 Bft) 100,00 %
18.03.2019 11:28 8,0 C 10,6 C 8,9 C 79 % 1015,7 hPa 0,0 l/m 2 min 0 min 365 W/m 22,5 km/h (4 Bft) 100,00 %
18.03.2019 11:30 8,0 C 10,0 C 8,3 C 80 % 1015,7 hPa 0,0 l/m 2 min 0 min 356 W/m 22,5 km/h (4 Bft) 100,00 %
18.03.2019 11:32 8,1 C 10,6 C 8,9 C 80 % 1015,7 hPa 0,0 l/m 2 min 0 min 366 W/m 12,9 km/h (3 Bft) 100,00 %
18.03.2019 11:34 8,1 C 10,0 C 8,9 C 80 % 1015,8 hPa 0,0 l/m 2 min 0 min 317 W/m 16,1 km/h (3 Bft) 97,87 %
18.03.2019 11:36 8,1 C 10,0 C 8,9 C 80 % 1015,7 hPa 0,0 l/m 2 min 0 min 326 W/m 12,9 km/h (3 Bft) 100,00 %
18.03.2019 11:38 8,1 C 10,6 C 8,9 C 79 % 1015,8 hPa 0,0 l/m 2 min 0 min 361 W/m 12,9 km/h (3 Bft) 100,00 %
18.03.2019 11:40 8,2 C 10,6 C 8,9 C 79 % 1015,8 hPa 0,0 l/m 2 min 0 min 351 W/m 12,9 km/h (3 Bft) 100,00 %
18.03.2019 11:42 8,2 C 11,1 C 9,4 C 80 % 1015,9 hPa 0,0 l/m 2 min 0 min 353 W/m 12,9 km/h (3 Bft) 100,00 %
18.03.2019 11:44 8,3 C 12,2 C 9,4 C 79 % 1015,9 hPa 0,0 l/m 2 min 0 min 394 W/m 16,1 km/h (3 Bft) 100,00 %
18.03.2019 11:46 8,4 C 12,2 C 10,0 C 80 % 1015,9 hPa 0,0 l/m 2 min 0 min 372 W/m 12,9 km/h (3 Bft) 100,00 %
18.03.2019 11:48 8,4 C 11,7 C 9,4 C 79 % 1015,9 hPa 0,0 l/m 2 min 0 min 342 W/m 16,1 km/h (3 Bft) 100,00 %
18.03.2019 11:50 8,4 C 11,1 C 8,9 C 78 % 1015,9 hPa 0,0 l/m 2 min 0 min 344 W/m 12,9 km/h (3 Bft) 100,00 %
18.03.2019 11:52 8,4 C 10,6 C 8,9 C 78 % 1016,0 hPa 0,0 l/m 2 min 0 min 355 W/m 19,3 km/h (3 Bft) 97,83 %
18.03.2019 11:54 8,5 C 11,1 C 8,9 C 77 % 1016,0 hPa 0,0 l/m 2 min 0 min 350 W/m 16,1 km/h (3 Bft) 97,87 %
18.03.2019 11:56 8,5 C 11,1 C 8,9 C 78 % 1016,0 hPa 0,0 l/m 2 min 0 min 386 W/m 12,9 km/h (3 Bft) 97,87 %
18.03.2019 11:58 8,6 C 11,7 C 9,4 C 78 % 1016,1 hPa 0,0 l/m 2 min 0 min 374 W/m 12,9 km/h (3 Bft) 97,87 %
18.03.2019 12:00 8,6 C 11,7 C 9,4 C 78 % 1015,9 hPa 0,0 l/m 2 min 0 min 404 W/m 16,1 km/h (3 Bft) 97,87 %
18.03.2019 12:02 8,7 C 12,8 C 9,4 C 76 % 1015,9 hPa 0,0 l/m 2 min 0 min 435 W/m 16,1 km/h (3 Bft) 95,65 %
18.03.2019 12:04 8,7 C 12,8 C 8,9 C 75 % 1015,9 hPa 0,0 l/m 2 min 0 min 480 W/m 12,9 km/h (3 Bft) 97,87 %
18.03.2019 12:07 8,7 C 14,4 C 9,4 C 75 % 1016,0 hPa 0,0 l/m 3 min 0 min 558 W/m 16,1 km/h (3 Bft) 98,59 %
18.03.2019 12:08 8,8 C 14,4 C 9,4 C 75 % 1016,0 hPa 0,0 l/m 1 min 0 min 578 W/m 6,4 km/h (2 Bft) 95,65 %
18.03.2019 12:10 8,9 C 13,3 C 9,4 C 76 % 1016,0 hPa 0,0 l/m 2 min 0 min 624 W/m 12,9 km/h (3 Bft) 97,92 %
18.03.2019 12:12 9,0 C 13,9 C 9,4 C 76 % 1016,1 hPa 0,0 l/m 0 min 0 min 294 W/m 9,7 km/h (2 Bft) 97,87 %
18.03.2019 12:14 9,2 C 15,0 C 10,0 C 76 % 1016,1 hPa 0,0 l/m 2 min 0 min 763 W/m 19,3 km/h (3 Bft) 95,65 %
18.03.2019 12:16 9,2 C 12,8 C 9,4 C 75 % 1016,1 hPa 0,0 l/m 2 min 0 min 427 W/m 22,5 km/h (4 Bft) 97,87 %
18.03.2019 12:18 9,2 C 11,7 C 9,4 C 73 % 1016,2 hPa 0,0 l/m 0 min 0 min 280 W/m 16,1 km/h (3 Bft) 95,74 %
18.03.2019 12:20 9,2 C 11,1 C 9,4 C 73 % 1016,2 hPa 0,0 l/m 0 min 0 min 260 W/m 9,7 km/h (2 Bft) 97,87 %
18.03.2019 12:22 9,2 C 10,6 C 8,9 C 72 % 1016,2 hPa 0,0 l/m 0 min 0 min 208 W/m 19,3 km/h (3 Bft) 95,74 %
18.03.2019 12:24 9,1 C 9,4 C 8,3 C 71 % 1016,3 hPa 0,0 l/m 0 min 0 min 188 W/m 16,1 km/h (3 Bft) 97,87 %
18.03.2019 12:26 9,0 C 10,0 C 8,3 C 71 % 1016,2 hPa 0,0 l/m 0 min 0 min 198 W/m 16,1 km/h (3 Bft) 97,83 %
18.03.2019 12:28 8,9 C 10,0 C 8,3 C 71 % 1016,2 hPa 0,0 l/m 0 min 0 min 195 W/m 16,1 km/h (3 Bft) 100,00 %
18.03.2019 12:30 8,9 C 10,6 C 8,3 C 71 % 1016,1 hPa 0,0 l/m 0 min 0 min 195 W/m 12,9 km/h (3 Bft) 97,87 %
18.03.2019 12:32 8,9 C 13,9 C 9,4 C 72 % 1016,2 hPa 0,0 l/m 2 min 0 min 419 W/m 16,1 km/h (3 Bft) 95,74 %
18.03.2019 12:34 9,0 C 14,4 C 11,7 C 73 % 1016,2 hPa 0,0 l/m 2 min 0 min 726 W/m 19,3 km/h (3 Bft) 97,87 %
18.03.2019 12:36 9,1 C 15,6 C 13,3 C 72 % 1016,1 hPa 0,0 l/m 2 min 0 min 730 W/m 12,9 km/h (3 Bft) 100,00 %
18.03.2019 12:38 9,2 C 15,6 C 14,4 C 73 % 1016,1 hPa 0,0 l/m 2 min 0 min 720 W/m 12,9 km/h (3 Bft) 100,00 %
18.03.2019 12:40 9,3 C 15,6 C 14,4 C 73 % 1016,1 hPa 0,0 l/m 2 min 0 min 722 W/m 16,1 km/h (3 Bft) 100,00 %
18.03.2019 12:42 9,4 C 16,7 C 15,0 C 72 % 1016,1 hPa 0,0 l/m 2 min 0 min 727 W/m 16,1 km/h (3 Bft) 97,87 %
18.03.2019 12:44 9,6 C 17,2 C 15,0 C 72 % 1016,2 hPa 0,0 l/m 2 min 0 min 729 W/m 19,3 km/h (3 Bft) 100,00 %
18.03.2019 12:46 9,8 C 17,2 C 15,6 C 72 % 1016,2 hPa 0,0 l/m 2 min 0 min 760 W/m 16,1 km/h (3 Bft) 100,00 %
18.03.2019 12:48 9,9 C 16,1 C 15,6 C 71 % 1016,2 hPa 0,0 l/m 2 min 0 min 782 W/m 12,9 km/h (3 Bft) 100,00 %
18.03.2019 12:50 10,1 C 16,1 C 16,1 C 71 % 1016,2 hPa 0,0 l/m 2 min 0 min 777 W/m 19,3 km/h (3 Bft) 100,00 %
18.03.2019 12:52 10,2 C 14,4 C 13,9 C 70 % 1016,2 hPa 0,0 l/m 2 min 0 min 616 W/m 12,9 km/h (3 Bft) 100,00 %
18.03.2019 12:54 10,2 C 12,8 C 11,7 C 70 % 1016,2 hPa 0,0 l/m 2 min 0 min 315 W/m 19,3 km/h (3 Bft) 97,87 %
18.03.2019 12:56 10,2 C 11,7 C 10,6 C 69 % 1016,2 hPa 0,0 l/m 0 min 0 min 231 W/m 29,0 km/h (5 Bft) 100,00 %
18.03.2019 12:58 10,1 C 10,6 C 10,0 C 69 % 1016,2 hPa 0,0 l/m 0 min 0 min 168 W/m 12,9 km/h (3 Bft) 93,62 %
18.03.2019 13:00 10,1 C 10,0 C 9,4 C 69 % 1016,3 hPa 0,0 l/m 0 min 2 min 113 W/m 16,1 km/h (3 Bft) 97,87 %
18.03.2019 13:02 9,9 C 8,9 C 8,3 C 68 % 1016,4 hPa 0,0 l/m 0 min 2 min 87 W/m 32,2 km/h (5 Bft) 97,83 %
18.03.2019 13:04 9,7 C 7,8 C 7,2 C 70 % 1016,4 hPa 0,0 l/m 0 min 2 min 84 W/m 35,4 km/h (5 Bft) 93,62 %
18.03.2019 13:06 9,4 C 7,2 C 6,1 C 71 % 1016,4 hPa 0,0 l/m 0 min 2 min 103 W/m 29,0 km/h (5 Bft) 97,87 %
18.03.2019 13:08 9,1 C 7,2 C 6,1 C 71 % 1016,4 hPa 0,0 l/m 0 min 2 min 116 W/m 22,5 km/h (4 Bft) 97,87 %
18.03.2019 13:10 8,9 C 7,2 C 6,1 C 71 % 1016,5 hPa 0,0 l/m 0 min 2 min 120 W/m 16,1 km/h (3 Bft) 97,87 %
18.03.2019 13:12 8,7 C 7,2 C 6,1 C 72 % 1016,5 hPa 0,0 l/m 0 min 2 min 131 W/m 19,3 km/h (3 Bft) 97,87 %
18.03.2019 13:14 8,5 C 7,2 C 6,1 C 72 % 1016,6 hPa 0,0 l/m 0 min 2 min 137 W/m 29,0 km/h (5 Bft) 95,65 %
18.03.2019 13:16 8,3 C 7,2 C 6,1 C 72 % 1016,7 hPa 0,0 l/m 0 min 2 min 132 W/m 19,3 km/h (3 Bft) 97,87 %
18.03.2019 13:18 8,2 C 7,2 C 6,1 C 73 % 1016,7 hPa 0,0 l/m 0 min 2 min 126 W/m 19,3 km/h (3 Bft) 97,87 %
18.03.2019 13:20 8,1 C 7,2 C 6,7 C 74 % 1016,7 hPa 0,0 l/m 0 min 2 min 132 W/m 22,5 km/h (4 Bft) 95,74 %
18.03.2019 13:22 8,1 C 7,8 C 6,7 C 74 % 1016,6 hPa 0,0 l/m 0 min 2 min 147 W/m 16,1 km/h (3 Bft) 95,74 %
18.03.2019 13:24 8,0 C 7,8 C 6,7 C 74 % 1016,7 hPa 0,0 l/m 0 min 2 min 127 W/m 25,7 km/h (4 Bft) 95,74 %
18.03.2019 13:26 7,9 C 7,2 C 6,7 C 74 % 1016,8 hPa 0,0 l/m 0 min 2 min 111 W/m 19,3 km/h (3 Bft) 97,83 %
18.03.2019 13:28 7,8 C 7,2 C 6,7 C 74 % 1016,8 hPa 0,0 l/m 0 min 2 min 103 W/m 22,5 km/h (4 Bft) 97,87 %
18.03.2019 13:30 7,7 C 7,2 C 6,7 C 74 % 1016,8 hPa 0,0 l/m 0 min 2 min 93 W/m 32,2 km/h (5 Bft) 97,87 %
18.03.2019 13:32 7,6 C 6,7 C 6,1 C 75 % 1016,9 hPa 0,0 l/m 0 min 2 min 83 W/m 25,7 km/h (4 Bft) 97,87 %
18.03.2019 13:34 7,6 C 6,1 C 6,1 C 75 % 1016,9 hPa 0,0 l/m 0 min 2 min 70 W/m 16,1 km/h (3 Bft) 95,74 %
18.03.2019 13:36 7,4 C 6,1 C 6,1 C 76 % 1016,9 hPa 0,0 l/m 0 min 2 min 62 W/m 19,3 km/h (3 Bft) 95,65 %
18.03.2019 13:38 7,3 C 6,1 C 5,6 C 76 % 1016,9 hPa 0,0 l/m 0 min 2 min 70 W/m 25,7 km/h (4 Bft) 95,74 %
18.03.2019 13:40 7,2 C 6,1 C 5,6 C 77 % 1016,9 hPa 0,0 l/m 0 min 2 min 87 W/m 22,5 km/h (4 Bft) 93,62 %
18.03.2019 13:42 7,1 C 6,1 C 5,6 C 77 % 1016,9 hPa 0,0 l/m 0 min 2 min 107 W/m 19,3 km/h (3 Bft) 95,74 %
18.03.2019 13:44 7,1 C 6,7 C 5,6 C 77 % 1016,9 hPa 0,0 l/m 0 min 2 min 137 W/m 16,1 km/h (3 Bft) 97,87 %
18.03.2019 13:46 7,0 C 6,7 C 6,1 C 78 % 1016,8 hPa 0,0 l/m 0 min 2 min 168 W/m 16,1 km/h (3 Bft) 97,87 %
18.03.2019 13:48 7,0 C 7,2 C 6,1 C 78 % 1016,7 hPa 0,0 l/m 0 min 0 min 189 W/m 9,7 km/h (2 Bft) 95,65 %
18.03.2019 13:50 7,0 C 7,8 C 6,7 C 79 % 1016,8 hPa 0,0 l/m 0 min 0 min 228 W/m 9,7 km/h (2 Bft) 97,87 %
18.03.2019 13:52 7,1 C 8,3 C 7,2 C 80 % 1016,8 hPa 0,0 l/m 0 min 0 min 268 W/m 12,9 km/h (3 Bft) 97,87 %
18.03.2019 13:54 7,1 C 9,4 C 7,8 C 80 % 1016,8 hPa 0,0 l/m 2 min 0 min 322 W/m 16,1 km/h (3 Bft) 97,87 %
18.03.2019 13:56 7,2 C 9,4 C 8,3 C 80 % 1016,8 hPa 0,0 l/m 2 min 0 min 376 W/m 12,9 km/h (3 Bft) 95,74 %
18.03.2019 13:58 7,2 C 11,7 C 8,9 C 80 % 1016,8 hPa 0,0 l/m 2 min 0 min 444 W/m 9,7 km/h (2 Bft) 95,74 %
18.03.2019 14:00 7,3 C 12,2 C 8,9 C 80 % 1016,8 hPa 0,0 l/m 2 min 0 min 458 W/m 12,9 km/h (3 Bft) 95,65 %
18.03.2019 14:02 7,4 C 10,6 C 8,9 C 79 % 1016,8 hPa 0,0 l/m 2 min 0 min 288 W/m 12,9 km/h (3 Bft) 95,74 %
18.03.2019 14:04 7,5 C 9,4 C 8,3 C 78 % 1016,9 hPa 0,0 l/m 0 min 0 min 213 W/m 9,7 km/h (2 Bft) 97,87 %
18.03.2019 14:06 7,6 C 8,9 C 8,3 C 78 % 1016,8 hPa 0,0 l/m 0 min 0 min 189 W/m 19,3 km/h (3 Bft) 95,74 %
18.03.2019 14:08 7,6 C 8,9 C 8,3 C 78 % 1016,9 hPa 0,0 l/m 0 min 0 min 182 W/m 16,1 km/h (3 Bft) 97,87 %
18.03.2019 14:10 7,6 C 8,9 C 7,8 C 77 % 1016,8 hPa 0,0 l/m 0 min 0 min 178 W/m 19,3 km/h (3 Bft) 97,87 %
18.03.2019 14:12 7,7 C 8,9 C 7,8 C 77 % 1016,8 hPa 0,0 l/m 0 min 0 min 240 W/m 9,7 km/h (2 Bft) 97,83 %
18.03.2019 14:14 7,7 C 9,4 C 7,8 C 76 % 1016,7 hPa 0,0 l/m 0 min 0 min 226 W/m 12,9 km/h (3 Bft) 97,87 %
18.03.2019 14:16 7,7 C 11,1 C 8,3 C 76 % 1016,7 hPa 0,0 l/m 0 min 0 min 255 W/m 12,9 km/h (3 Bft) 95,74 %
18.03.2019 14:18 7,8 C 12,8 C 8,3 C 75 % 1016,8 hPa 0,0 l/m 2 min 0 min 392 W/m 25,7 km/h (4 Bft) 97,87 %
18.03.2019 14:20 7,9 C 12,2 C 8,9 C 75 % 1016,7 hPa 0,0 l/m 2 min 0 min 515 W/m 9,7 km/h (2 Bft) 95,74 %
18.03.2019 14:22 8,0 C 10,6 C 8,3 C 73 % 1016,8 hPa 0,0 l/m 0 min 0 min 213 W/m 16,1 km/h (3 Bft) 95,65 %
18.03.2019 14:24 8,1 C 11,1 C 8,3 C 72 % 1016,7 hPa 0,0 l/m 2 min 0 min 315 W/m 12,9 km/h (3 Bft) 97,87 %
18.03.2019 14:26 8,2 C 13,3 C 8,9 C 72 % 1016,8 hPa 0,0 l/m 2 min 0 min 582 W/m 9,7 km/h (2 Bft) 97,87 %
18.03.2019 14:28 8,3 C 15,0 C 9,4 C 73 % 1016,7 hPa 0,0 l/m 2 min 0 min 682 W/m 12,9 km/h (3 Bft) 97,87 %
18.03.2019 14:30 8,4 C 16,1 C 9,4 C 73 % 1016,7 hPa 0,0 l/m 2 min 0 min 663 W/m 25,7 km/h (4 Bft) 97,87 %
18.03.2019 14:32 8,6 C 15,0 C 9,4 C 73 % 1016,7 hPa 0,0 l/m 2 min 0 min 644 W/m 22,5 km/h (4 Bft) 97,87 %
18.03.2019 14:34 8,8 C 13,9 C 9,4 C 72 % 1016,7 hPa 0,0 l/m 2 min 0 min 479 W/m 25,7 km/h (4 Bft) 97,87 %
18.03.2019 14:36 8,9 C 13,9 C 9,4 C 71 % 1016,7 hPa 0,0 l/m 2 min 0 min 461 W/m 25,7 km/h (4 Bft) 97,83 %
18.03.2019 14:38 9,1 C 14,4 C 9,4 C 71 % 1016,8 hPa 0,0 l/m 2 min 0 min 585 W/m 16,1 km/h (3 Bft) 95,74 %
18.03.2019 14:40 9,2 C 15,6 C 10,0 C 70 % 1016,7 hPa 0,0 l/m 2 min 0 min 705 W/m 16,1 km/h (3 Bft) 97,87 %
18.03.2019 14:42 9,4 C 16,1 C 10,0 C 70 % 1016,7 hPa 0,0 l/m 2 min 0 min 667 W/m 19,3 km/h (3 Bft) 97,87 %
18.03.2019 14:44 9,6 C 16,7 C 10,0 C 69 % 1016,7 hPa 0,0 l/m 2 min 0 min 624 W/m 22,5 km/h (4 Bft) 100,00 %
18.03.2019 14:46 9,7 C 16,7 C 9,4 C 69 % 1016,7 hPa 0,0 l/m 2 min 0 min 598 W/m 12,9 km/h (3 Bft) 95,65 %
18.03.2019 14:48 9,8 C 16,7 C 9,4 C 69 % 1016,7 hPa 0,0 l/m 2 min 0 min 587 W/m 22,5 km/h (4 Bft) 97,87 %
18.03.2019 14:50 9,9 C 16,7 C 9,4 C 68 % 1016,7 hPa 0,0 l/m 2 min 0 min 585 W/m 19,3 km/h (3 Bft) 97,87 %
18.03.2019 14:52 10,1 C 16,1 C 10,0 C 68 % 1016,7 hPa 0,0 l/m 2 min 0 min 587 W/m 16,1 km/h (3 Bft) 97,87 %
18.03.2019 14:54 10,1 C 15,6 C 9,4 C 67 % 1016,7 hPa 0,0 l/m 2 min 0 min 592 W/m 16,1 km/h (3 Bft) 97,87 %
18.03.2019 14:56 10,2 C 15,6 C 9,4 C 66 % 1016,8 hPa 0,0 l/m 2 min 0 min 605 W/m 19,3 km/h (3 Bft) 97,87 %
18.03.2019 14:58 10,2 C 16,1 C 10,0 C 65 % 1016,7 hPa 0,0 l/m 2 min 0 min 586 W/m 16,1 km/h (3 Bft) 97,87 %
18.03.2019 15:00 10,3 C 15,0 C 9,4 C 65 % 1016,7 hPa 0,0 l/m 2 min 0 min 606 W/m 25,7 km/h (4 Bft) 93,48 %
18.03.2019 15:02 10,3 C 15,6 C 10,0 C 63 % 1016,7 hPa 0,0 l/m 2 min 0 min 685 W/m 25,7 km/h (4 Bft) 97,87 %
18.03.2019 15:04 10,4 C 15,0 C 10,0 C 63 % 1016,8 hPa 0,0 l/m 2 min 0 min 687 W/m 9,7 km/h (2 Bft) 95,74 %
18.03.2019 15:06 10,4 C 15,6 C 10,0 C 63 % 1016,8 hPa 0,0 l/m 2 min 0 min 657 W/m 12,9 km/h (3 Bft) 97,87 %
18.03.2019 15:08 10,5 C 15,6 C 10,0 C 63 % 1016,8 hPa 0,0 l/m 2 min 0 min 612 W/m 16,1 km/h (3 Bft) 97,87 %
18.03.2019 15:10 10,5 C 15,6 C 10,0 C 63 % 1016,8 hPa 0,0 l/m 2 min 0 min 577 W/m 16,1 km/h (3 Bft) 97,83 %
18.03.2019 15:12 10,6 C 16,1 C 10,0 C 62 % 1016,8 hPa 0,0 l/m 2 min 0 min 562 W/m 19,3 km/h (3 Bft) 95,74 %
18.03.2019 15:14 10,6 C 15,6 C 10,0 C 62 % 1016,8 hPa 0,0 l/m 2 min 0 min 553 W/m 12,9 km/h (3 Bft) 97,87 %
18.03.2019 15:16 10,6 C 14,4 C 9,4 C 62 % 1016,8 hPa 0,0 l/m 2 min 0 min 516 W/m 22,5 km/h (4 Bft) 97,87 %
18.03.2019 15:18 10,6 C 11,7 C 8,9 C 61 % 1016,8 hPa 0,0 l/m 0 min 0 min 147 W/m 16,1 km/h (3 Bft) 97,87 %
18.03.2019 15:20 10,4 C 10,6 C 8,9 C 61 % 1016,8 hPa 0,0 l/m 0 min 0 min 163 W/m 32,2 km/h (5 Bft) 97,87 %
18.03.2019 15:22 10,3 C 11,1 C 8,9 C 61 % 1016,8 hPa 0,0 l/m 0 min 0 min 198 W/m 22,5 km/h (4 Bft) 100,00 %
18.03.2019 15:24 10,2 C 11,1 C 8,9 C 61 % 1016,8 hPa 0,0 l/m 0 min 0 min 201 W/m 16,1 km/h (3 Bft) 97,87 %
18.03.2019 15:26 10,1 C 10,0 C 8,9 C 63 % 1016,7 hPa 0,0 l/m 0 min 0 min 190 W/m 16,1 km/h (3 Bft) 97,87 %
18.03.2019 15:28 10,0 C 10,0 C 8,9 C 63 % 1016,7 hPa 0,0 l/m 0 min 0 min 183 W/m 19,3 km/h (3 Bft) 95,74 %
18.03.2019 15:30 9,9 C 9,4 C 8,9 C 63 % 1016,8 hPa 0,0 l/m 0 min 0 min 180 W/m 19,3 km/h (3 Bft) 97,87 %
18.03.2019 15:32 9,8 C 9,4 C 8,9 C 63 % 1016,8 hPa 0,0 l/m 0 min 0 min 179 W/m 16,1 km/h (3 Bft) 97,87 %
18.03.2019 15:34 9,7 C 9,4 C 8,9 C 64 % 1016,8 hPa 0,0 l/m 0 min 0 min 171 W/m 22,5 km/h (4 Bft) 97,83 %
18.03.2019 15:36 9,6 C 9,4 C 8,9 C 65 % 1016,8 hPa 0,0 l/m 0 min 0 min 169 W/m 12,9 km/h (3 Bft) 97,87 %
18.03.2019 15:38 9,5 C 9,4 C 8,9 C 64 % 1016,8 hPa 0,0 l/m 0 min 0 min 171 W/m 16,1 km/h (3 Bft) 97,87 %
18.03.2019 15:40 9,4 C 9,4 C 8,9 C 64 % 1016,8 hPa 0,0 l/m 0 min 0 min 178 W/m 22,5 km/h (4 Bft) 95,74 %
18.03.2019 15:42 9,4 C 9,4 C 8,9 C 65 % 1016,9 hPa 0,0 l/m 0 min 0 min 192 W/m 22,5 km/h (4 Bft) 93,62 %
18.03.2019 15:44 9,3 C 9,4 C 8,3 C 66 % 1016,9 hPa 0,0 l/m 0 min 0 min 172 W/m 19,3 km/h (3 Bft) 97,87 %
18.03.2019 15:46 9,2 C 9,4 C 8,9 C 66 % 1016,9 hPa 0,0 l/m 0 min 0 min 172 W/m 16,1 km/h (3 Bft) 97,83 %
18.03.2019 15:48 9,2 C 9,4 C 8,3 C 66 % 1016,9 hPa 0,0 l/m 0 min 0 min 179 W/m 12,9 km/h (3 Bft) 97,87 %
18.03.2019 15:50 9,1 C 9,4 C 8,9 C 67 % 1016,9 hPa 0,0 l/m 0 min 0 min 200 W/m 12,9 km/h (3 Bft) 97,87 %
18.03.2019 15:52 9,1 C 9,4 C 8,9 C 67 % 1017,0 hPa 0,0 l/m 0 min 0 min 187 W/m 12,9 km/h (3 Bft) 97,87 %
18.03.2019 15:54 9,1 C 9,4 C 8,9 C 67 % 1017,0 hPa 0,0 l/m 0 min 0 min 175 W/m 22,5 km/h (4 Bft) 95,74 %
18.03.2019 15:56 9,1 C 9,4 C 8,9 C 68 % 1017,0 hPa 0,0 l/m 0 min 0 min 133 W/m 9,7 km/h (2 Bft) 97,83 %
18.03.2019 15:58 9,1 C 9,4 C 8,3 C 68 % 1016,9 hPa 0,0 l/m 0 min 0 min 115 W/m 12,9 km/h (3 Bft) 95,74 %
18.03.2019 16:00 9,1 C 10,6 C 8,9 C 68 % 1016,9 hPa 0,0 l/m 0 min 0 min 116 W/m 9,7 km/h (2 Bft) 97,87 %
18.03.2019 16:02 9,1 C 12,2 C 8,9 C 68 % 1016,9 hPa 0,0 l/m 2 min 0 min 233 W/m 9,7 km/h (2 Bft) 97,87 %
18.03.2019 16:04 9,1 C 12,2 C 9,4 C 68 % 1017,0 hPa 0,0 l/m 2 min 0 min 427 W/m 12,9 km/h (3 Bft) 97,87 %
18.03.2019 16:06 9,2 C 13,3 C 10,6 C 67 % 1017,0 hPa 0,0 l/m 2 min 0 min 430 W/m 12,9 km/h (3 Bft) 95,74 %
18.03.2019 16:08 9,2 C 13,9 C 11,7 C 68 % 1017,0 hPa 0,0 l/m 2 min 0 min 424 W/m 16,1 km/h (3 Bft) 97,83 %
18.03.2019 16:10 9,4 C 13,9 C 12,8 C 67 % 1017,0 hPa 0,0 l/m 2 min 0 min 412 W/m 19,3 km/h (3 Bft) 100,00 %
18.03.2019 16:12 9,5 C 13,9 C 13,3 C 66 % 1017,0 hPa 0,0 l/m 2 min 0 min 401 W/m 12,9 km/h (3 Bft) 97,87 %
18.03.2019 16:14 9,6 C 13,3 C 13,3 C 66 % 1017,0 hPa 0,0 l/m 2 min 0 min 394 W/m 9,7 km/h (2 Bft) 100,00 %
18.03.2019 16:16 9,7 C 13,3 C 12,8 C 65 % 1017,0 hPa 0,0 l/m 2 min 0 min 377 W/m 12,9 km/h (3 Bft) 100,00 %
18.03.2019 16:18 9,8 C 13,9 C 12,2 C 66 % 1017,1 hPa 0,0 l/m 2 min 0 min 374 W/m 12,9 km/h (3 Bft) 100,00 %
18.03.2019 16:20 9,9 C 12,8 C 12,2 C 64 % 1017,0 hPa 0,0 l/m 2 min 0 min 371 W/m 19,3 km/h (3 Bft) 97,83 %
18.03.2019 16:22 9,9 C 12,8 C 12,2 C 64 % 1017,1 hPa 0,0 l/m 2 min 0 min 363 W/m 35,4 km/h (5 Bft) 100,00 %
18.03.2019 16:24 9,9 C 12,8 C 12,2 C 61 % 1017,2 hPa 0,0 l/m 2 min 0 min 357 W/m 32,2 km/h (5 Bft) 100,00 %
18.03.2019 16:26 9,9 C 12,8 C 12,2 C 61 % 1017,1 hPa 0,0 l/m 2 min 0 min 355 W/m 22,5 km/h (4 Bft) 100,00 %
18.03.2019 16:28 10,0 C 12,8 C 12,2 C 61 % 1017,2 hPa 0,0 l/m 2 min 0 min 352 W/m 12,9 km/h (3 Bft) 100,00 %
18.03.2019 16:30 10,0 C 12,2 C 11,7 C 60 % 1017,2 hPa 0,0 l/m 2 min 0 min 333 W/m 9,7 km/h (2 Bft) 100,00 %
18.03.2019 16:32 10,0 C 12,2 C 11,7 C 60 % 1017,3 hPa 0,0 l/m 2 min 0 min 337 W/m 12,9 km/h (3 Bft) 100,00 %
18.03.2019 16:34 10,1 C 12,2 C 11,1 C 61 % 1017,3 hPa 0,0 l/m 2 min 0 min 332 W/m 22,5 km/h (4 Bft) 100,00 %
18.03.2019 16:36 10,1 C 12,8 C 10,0 C 61 % 1017,3 hPa 0,0 l/m 2 min 0 min 336 W/m 22,5 km/h (4 Bft) 100,00 %
18.03.2019 16:38 10,1 C 12,2 C 9,4 C 62 % 1017,3 hPa 0,0 l/m 2 min 0 min 289 W/m 16,1 km/h (3 Bft) 100,00 %
18.03.2019 16:40 10,1 C 12,2 C 8,9 C 62 % 1017,3 hPa 0,0 l/m 2 min 0 min 308 W/m 6,4 km/h (2 Bft) 100,00 %
18.03.2019 16:42 10,1 C 12,2 C 8,9 C 62 % 1017,3 hPa 0,0 l/m 2 min 0 min 322 W/m 16,1 km/h (3 Bft) 100,00 %
18.03.2019 16:44 10,1 C 12,2 C 8,9 C 62 % 1017,4 hPa 0,0 l/m 2 min 0 min 322 W/m 19,3 km/h (3 Bft) 97,83 %
18.03.2019 16:46 10,1 C 12,2 C 8,9 C 61 % 1017,3 hPa 0,0 l/m 2 min 0 min 314 W/m 12,9 km/h (3 Bft) 100,00 %
18.03.2019 16:48 10,1 C 12,2 C 8,9 C 61 % 1017,5 hPa 0,0 l/m 2 min 0 min 310 W/m 19,3 km/h (3 Bft) 100,00 %
18.03.2019 16:50 10,1 C 12,2 C 8,9 C 61 % 1017,5 hPa 0,0 l/m 2 min 0 min 315 W/m 22,5 km/h (4 Bft) 97,87 %
18.03.2019 16:52 10,1 C 11,7 C 8,9 C 61 % 1017,4 hPa 0,0 l/m 2 min 0 min 317 W/m 19,3 km/h (3 Bft) 97,87 %
18.03.2019 16:54 10,0 C 12,2 C 8,9 C 60 % 1017,5 hPa 0,0 l/m 2 min 0 min 323 W/m 19,3 km/h (3 Bft) 100,00 %
18.03.2019 16:56 9,9 C 11,1 C 8,9 C 60 % 1017,5 hPa 0,0 l/m 2 min 0 min 224 W/m 19,3 km/h (3 Bft) 100,00 %
18.03.2019 16:58 10,0 C 10,6 C 8,9 C 61 % 1017,5 hPa 0,0 l/m 2 min 0 min 149 W/m 16,1 km/h (3 Bft) 97,87 %
18.03.2019 17:00 9,9 C 10,6 C 8,9 C 61 % 1017,4 hPa 0,0 l/m 2 min 0 min 149 W/m 22,5 km/h (4 Bft) 97,87 %
18.03.2019 17:02 9,9 C 10,0 C 8,9 C 61 % 1017,5 hPa 0,0 l/m 2 min 0 min 149 W/m 19,3 km/h (3 Bft) 97,87 %
18.03.2019 17:04 9,9 C 10,6 C 8,9 C 61 % 1017,5 hPa 0,0 l/m 2 min 0 min 149 W/m 19,3 km/h (3 Bft) 97,87 %
18.03.2019 17:06 9,9 C 10,6 C 9,4 C 62 % 1017,6 hPa 0,0 l/m 2 min 0 min 151 W/m 19,3 km/h (3 Bft) 95,65 %
18.03.2019 17:08 9,9 C 10,0 C 8,9 C 62 % 1017,6 hPa 0,0 l/m 2 min 0 min 152 W/m 19,3 km/h (3 Bft) 97,87 %
18.03.2019 17:10 9,9 C 10,0 C 9,4 C 63 % 1017,6 hPa 0,0 l/m 2 min 0 min 160 W/m 19,3 km/h (3 Bft) 97,87 %
18.03.2019 17:12 9,8 C 10,0 C 8,9 C 63 % 1017,7 hPa 0,0 l/m 2 min 0 min 160 W/m 25,7 km/h (4 Bft) 93,62 %
18.03.2019 17:14 9,8 C 9,4 C 8,9 C 64 % 1017,6 hPa 0,0 l/m 2 min 0 min 144 W/m 22,5 km/h (4 Bft) 97,87 %
18.03.2019 17:16 9,8 C 9,4 C 8,9 C 64 % 1017,6 hPa 0,0 l/m 2 min 0 min 109 W/m 16,1 km/h (3 Bft) 97,87 %
18.03.2019 17:18 9,7 C 9,4 C 8,9 C 65 % 1017,6 hPa 0,0 l/m 0 min 0 min 69 W/m 16,1 km/h (3 Bft) 97,87 %
18.03.2019 17:20 9,7 C 8,9 C 8,3 C 65 % 1017,6 hPa 0,0 l/m 0 min 0 min 49 W/m 19,3 km/h (3 Bft) 97,83 %
18.03.2019 17:22 9,6 C 8,3 C 7,8 C 65 % 1017,6 hPa 0,0 l/m 0 min 0 min 40 W/m 19,3 km/h (3 Bft) 95,74 %
18.03.2019 17:24 9,4 C 8,3 C 7,8 C 65 % 1017,6 hPa 0,0 l/m 0 min 0 min 35 W/m 12,9 km/h (3 Bft) 97,87 %
18.03.2019 17:26 9,4 C 7,8 C 7,2 C 65 % 1017,7 hPa 0,0 l/m 0 min 0 min 33 W/m 9,7 km/h (2 Bft) 97,87 %
18.03.2019 17:28 9,3 C 7,8 C 7,2 C 65 % 1017,7 hPa 0,0 l/m 0 min 0 min 32 W/m 16,1 km/h (3 Bft) 97,87 %
18.03.2019 17:30 9,1 C 7,8 C 7,2 C 63 % 1017,7 hPa 0,0 l/m 0 min 0 min 32 W/m 16,1 km/h (3 Bft) 97,83 %
18.03.2019 17:32 9,0 C 7,2 C 7,2 C 62 % 1017,8 hPa 0,0 l/m 0 min 0 min 30 W/m 12,9 km/h (3 Bft) 97,87 %
18.03.2019 17:34 8,8 C 7,2 C 6,7 C 63 % 1017,8 hPa 0,0 l/m 0 min 0 min 32 W/m 16,1 km/h (3 Bft) 97,87 %
18.03.2019 17:36 8,7 C 7,2 C 6,7 C 64 % 1017,8 hPa 0,0 l/m 0 min 0 min 33 W/m 12,9 km/h (3 Bft) 97,87 %
18.03.2019 17:38 8,7 C 7,2 C 6,7 C 65 % 1017,8 hPa 0,0 l/m 0 min 0 min 37 W/m 16,1 km/h (3 Bft) 95,74 %
18.03.2019 17:40 8,6 C 7,2 C 6,7 C 66 % 1017,9 hPa 0,0 l/m 0 min 0 min 42 W/m 12,9 km/h (3 Bft) 97,87 %
18.03.2019 17:42 8,4 C 7,2 C 6,7 C 67 % 1018,0 hPa 0,0 l/m 0 min 0 min 49 W/m 16,1 km/h (3 Bft) 97,83 %
18.03.2019 17:44 8,4 C 7,2 C 6,7 C 67 % 1018,0 hPa 0,0 l/m 0 min 0 min 53 W/m 19,3 km/h (3 Bft) 100,00 %
18.03.2019 17:46 8,3 C 7,2 C 6,7 C 68 % 1018,1 hPa 0,0 l/m 0 min 0 min 53 W/m 25,7 km/h (4 Bft) 97,87 %
18.03.2019 17:48 8,2 C 7,2 C 6,7 C 68 % 1018,1 hPa 0,0 l/m 0 min 0 min 53 W/m 22,5 km/h (4 Bft) 100,00 %
18.03.2019 17:50 8,2 C 7,2 C 6,7 C 68 % 1018,2 hPa 0,0 l/m 0 min 0 min 50 W/m 32,2 km/h (5 Bft) 100,00 %
18.03.2019 17:52 8,2 C 7,2 C 6,7 C 69 % 1018,1 hPa 0,0 l/m 0 min 0 min 49 W/m 12,9 km/h (3 Bft) 97,87 %
18.03.2019 17:54 8,1 C 7,2 C 6,7 C 69 % 1018,1 hPa 0,0 l/m 0 min 0 min 49 W/m 22,5 km/h (4 Bft) 95,65 %
18.03.2019 17:56 8,1 C 7,2 C 6,7 C 69 % 1018,2 hPa 0,0 l/m 0 min 0 min 46 W/m 22,5 km/h (4 Bft) 95,74 %
18.03.2019 17:58 8,0 C 7,2 C 6,7 C 70 % 1018,3 hPa 0,0 l/m 0 min 0 min 41 W/m 19,3 km/h (3 Bft) 97,87 %
18.03.2019 18:00 7,9 C 7,2 C 6,7 C 70 % 1018,3 hPa 0,0 l/m 0 min 0 min 36 W/m 19,3 km/h (3 Bft) 93,62 %
18.03.2019 18:02 7,9 C 7,2 C 6,7 C 70 % 1018,4 hPa 0,0 l/m 0 min 0 min 33 W/m 22,5 km/h (4 Bft) 95,74 %
18.03.2019 18:04 7,8 C 6,7 C 6,7 C 70 % 1018,5 hPa 0,0 l/m 0 min 0 min 28 W/m 16,1 km/h (3 Bft) 93,62 %
18.03.2019 18:07 7,8 C 6,7 C 6,1 C 70 % 1018,6 hPa 0,0 l/m 0 min 0 min 24 W/m 19,3 km/h (3 Bft) 95,77 %
18.03.2019 18:08 7,8 C 6,7 C 6,1 C 70 % 1018,6 hPa 0,0 l/m 0 min 0 min 21 W/m 19,3 km/h (3 Bft) 95,65 %
18.03.2019 18:10 7,7 C 6,7 C 6,1 C 70 % 1018,6 hPa 0,0 l/m 0 min 0 min 20 W/m 16,1 km/h (3 Bft) 95,74 %
18.03.2019 18:12 7,7 C 6,7 C 6,1 C 70 % 1018,6 hPa 0,0 l/m 0 min 0 min 19 W/m 19,3 km/h (3 Bft) 95,74 %
18.03.2019 18:14 7,7 C 6,7 C 6,1 C 71 % 1018,7 hPa 0,0 l/m 0 min 0 min 19 W/m 19,3 km/h (3 Bft) 95,74 %
18.03.2019 18:16 7,6 C 6,7 C 6,1 C 71 % 1018,6 hPa 0,0 l/m 0 min 0 min 19 W/m 22,5 km/h (4 Bft) 93,62 %
18.03.2019 18:18 7,6 C 6,7 C 6,1 C 71 % 1018,7 hPa 0,0 l/m 0 min 0 min 19 W/m 12,9 km/h (3 Bft) 93,48 %
18.03.2019 18:20 7,6 C 6,7 C 6,1 C 71 % 1018,8 hPa 0,0 l/m 0 min 0 min 20 W/m 12,9 km/h (3 Bft) 95,74 %
18.03.2019 18:22 7,5 C 6,7 C 6,1 C 72 % 1018,8 hPa 0,0 l/m 0 min 0 min 19 W/m 12,9 km/h (3 Bft) 95,74 %
18.03.2019 18:24 7,5 C 6,7 C 6,1 C 72 % 1018,8 hPa 0,0 l/m 0 min 0 min 19 W/m 9,7 km/h (2 Bft) 93,62 %
18.03.2019 18:26 7,5 C 6,7 C 6,1 C 72 % 1018,8 hPa 0,0 l/m 0 min 0 min 18 W/m 12,9 km/h (3 Bft) 95,74 %
18.03.2019 18:28 7,4 C 6,7 C 6,1 C 73 % 1018,8 hPa 0,0 l/m 0 min 0 min 16 W/m 12,9 km/h (3 Bft) 95,74 %
18.03.2019 18:30 7,4 C 6,7 C 6,1 C 73 % 1018,9 hPa 0,0 l/m 0 min 0 min 15 W/m 9,7 km/h (2 Bft) 93,48 %
18.03.2019 18:32 7,4 C 6,7 C 6,1 C 73 % 1018,9 hPa 0,0 l/m 0 min 0 min 14 W/m 6,4 km/h (2 Bft) 95,74 %
18.03.2019 18:34 7,4 C 6,7 C 6,1 C 73 % 1018,9 hPa 0,0 l/m 0 min 0 min 14 W/m 6,4 km/h (2 Bft) 93,62 %
18.03.2019 18:36 7,4 C 6,1 C 6,1 C 73 % 1018,9 hPa 0,0 l/m 0 min 0 min 12 W/m 6,4 km/h (2 Bft) 95,74 %
18.03.2019 18:38 7,3 C 6,1 C 6,1 C 73 % 1018,9 hPa 0,0 l/m 0 min 0 min 11 W/m 6,4 km/h (2 Bft) 95,74 %
18.03.2019 18:40 7,3 C 6,1 C 5,6 C 73 % 1018,9 hPa 0,0 l/m 0 min 0 min 10 W/m 9,7 km/h (2 Bft) 97,83 %
18.03.2019 18:42 7,3 C 6,1 C 5,6 C 74 % 1019,0 hPa 0,0 l/m 0 min 0 min 8 W/m 9,7 km/h (2 Bft) 97,87 %
18.03.2019 18:44 7,3 C 6,1 C 5,6 C 74 % 1019,0 hPa 0,0 l/m 0 min 0 min 6 W/m 3,2 km/h (1 Bft) 95,74 %
18.03.2019 18:46 7,2 C 5,6 C 5,6 C 74 % 1019,0 hPa 0,0 l/m 0 min 0 min 3 W/m 9,7 km/h (2 Bft) 97,87 %
18.03.2019 18:48 7,2 C 5,6 C 5,0 C 74 % 1019,0 hPa 0,0 l/m 0 min 0 min 0 W/m 6,4 km/h (2 Bft) 100,00 %
18.03.2019 18:50 7,1 C 5,6 C 5,0 C 74 % 1019,1 hPa 0,0 l/m 0 min 0 min 0 W/m 9,7 km/h (2 Bft) 100,00 %
18.03.2019 18:52 7,1 C 5,6 C 5,0 C 75 % 1019,1 hPa 0,0 l/m 0 min 0 min 0 W/m 6,4 km/h (2 Bft) 95,65 %
18.03.2019 18:54 7,1 C 5,6 C 5,0 C 75 % 1019,1 hPa 0,0 l/m 0 min 0 min 0 W/m 3,2 km/h (1 Bft) 100,00 %
18.03.2019 18:56 7,0 C 5,0 C 5,0 C 75 % 1019,1 hPa 0,0 l/m 0 min 0 min 0 W/m 3,2 km/h (1 Bft) 100,00 %
18.03.2019 18:58 6,9 C 5,0 C 4,4 C 75 % 1019,1 hPa 0,0 l/m 0 min 0 min 0 W/m 12,9 km/h (3 Bft) 100,00 %
18.03.2019 19:00 6,9 C 5,0 C 4,4 C 75 % 1019,1 hPa 0,0 l/m 0 min 0 min 0 W/m 12,9 km/h (3 Bft) 97,87 %
18.03.2019 19:02 6,8 C 5,0 C 4,4 C 75 % 1019,1 hPa 0,0 l/m 0 min 0 min 0 W/m 6,4 km/h (2 Bft) 97,87 %
18.03.2019 19:04 6,7 C 5,0 C 4,4 C 76 % 1019,2 hPa 0,0 l/m 0 min 0 min 0 W/m 9,7 km/h (2 Bft) 100,00 %
18.03.2019 19:06 6,7 C 5,0 C 4,4 C 76 % 1019,1 hPa 0,0 l/m 0 min 0 min 0 W/m 6,4 km/h (2 Bft) 100,00 %
18.03.2019 19:08 6,6 C 5,0 C 4,4 C 76 % 1019,1 hPa 0,0 l/m 0 min 0 min 0 W/m 6,4 km/h (2 Bft) 100,00 %
18.03.2019 19:10 6,5 C 5,0 C 4,4 C 76 % 1019,1 hPa 0,0 l/m 0 min 0 min 0 W/m 9,7 km/h (2 Bft) 100,00 %
18.03.2019 19:12 6,4 C 5,0 C 4,4 C 76 % 1019,2 hPa 0,0 l/m 0 min 0 min 0 W/m 6,4 km/h (2 Bft) 100,00 %
18.03.2019 19:14 6,4 C 4,4 C 4,4 C 76 % 1019,2 hPa 0,0 l/m 0 min 0 min 0 W/m 6,4 km/h (2 Bft) 100,00 %
18.03.2019 19:16 6,4 C 4,4 C 3,9 C 77 % 1019,2 hPa 0,0 l/m 0 min 0 min 0 W/m 3,2 km/h (1 Bft) 100,00 %
18.03.2019 19:18 6,3 C 4,4 C 3,9 C 77 % 1019,3 hPa 0,0 l/m 0 min 0 min 0 W/m 0,0 km/h (0 Bft) 100,00 %
18.03.2019 19:20 6,3 C 4,4 C 3,9 C 77 % 1019,3 hPa 0,0 l/m 0 min 0 min 0 W/m 0,0 km/h (0 Bft) 100,00 %
18.03.2019 19:22 6,2 C 4,4 C 3,9 C 77 % 1019,3 hPa 0,0 l/m 0 min 0 min 0 W/m 0,0 km/h (0 Bft) 100,00 %
18.03.2019 19:24 6,2 C 4,4 C 3,9 C 77 % 1019,4 hPa 0,0 l/m 0 min 0 min 0 W/m 0,0 km/h (0 Bft) 100,00 %
18.03.2019 19:26 6,1 C 4,4 C 3,3 C 77 % 1019,4 hPa 0,0 l/m 0 min 0 min 0 W/m 0,0 km/h (0 Bft) 100,00 %
18.03.2019 19:28 6,1 C 3,9 C 3,3 C 77 % 1019,4 hPa 0,0 l/m 0 min 0 min 0 W/m 0,0 km/h (0 Bft) 97,87 %
18.03.2019 19:30 6,0 C 3,9 C 3,3 C 77 % 1019,4 hPa 0,0 l/m 0 min 0 min 0 W/m 0,0 km/h (0 Bft) 100,00 %
18.03.2019 19:32 5,9 C 3,9 C 3,3 C 77 % 1019,4 hPa 0,0 l/m 0 min 0 min 0 W/m 0,0 km/h (0 Bft) 100,00 %
18.03.2019 19:34 5,9 C 3,9 C 3,3 C 77 % 1019,5 hPa 0,0 l/m 0 min 0 min 0 W/m 3,2 km/h (1 Bft) 100,00 %
18.03.2019 19:36 5,9 C 3,9 C 2,8 C 77 % 1019,6 hPa 0,0 l/m 0 min 0 min 0 W/m 0,0 km/h (0 Bft) 100,00 %
18.03.2019 19:38 5,8 C 3,9 C 2,8 C 77 % 1019,6 hPa 0,0 l/m 0 min 0 min 0 W/m 3,2 km/h (1 Bft) 100,00 %
18.03.2019 19:40 5,8 C 3,9 C 2,8 C 77 % 1019,7 hPa 0,0 l/m 0 min 0 min 0 W/m 0,0 km/h (0 Bft) 100,00 %
18.03.2019 19:42 5,7 C 3,9 C 2,8 C 77 % 1019,7 hPa 0,0 l/m 0 min 0 min 0 W/m 3,2 km/h (1 Bft) 100,00 %
18.03.2019 19:44 5,7 C 3,9 C 2,8 C 77 % 1019,8 hPa 0,0 l/m 0 min 0 min 0 W/m 0,0 km/h (0 Bft) 100,00 %
18.03.2019 19:46 5,6 C 3,9 C 2,8 C 77 % 1019,8 hPa 0,0 l/m 0 min 0 min 0 W/m 0,0 km/h (0 Bft) 100,00 %
18.03.2019 19:48 5,6 C 3,9 C 2,2 C 77 % 1019,8 hPa 0,0 l/m 0 min 0 min 0 W/m 0,0 km/h (0 Bft) 100,00 %
18.03.2019 19:50 5,5 C 3,3 C 2,2 C 77 % 1019,9 hPa 0,0 l/m 0 min 0 min 0 W/m 0,0 km/h (0 Bft) 100,00 %
18.03.2019 19:52 5,4 C 3,3 C 2,2 C 77 % 1019,9 hPa 0,0 l/m 0 min 0 min 0 W/m 0,0 km/h (0 Bft) 97,87 %
18.03.2019 19:54 5,4 C 3,3 C 2,2 C 77 % 1019,9 hPa 0,0 l/m 0 min 0 min 0 W/m 3,2 km/h (1 Bft) 100,00 %
18.03.2019 19:56 5,3 C 3,3 C 2,2 C 77 % 1020,0 hPa 0,0 l/m 0 min 0 min 0 W/m 0,0 km/h (0 Bft) 100,00 %
18.03.2019 19:58 5,3 C 3,3 C 2,2 C 77 % 1020,0 hPa 0,0 l/m 0 min 0 min 0 W/m 3,2 km/h (1 Bft) 100,00 %
18.03.2019 20:00 5,2 C 3,3 C 2,2 C 77 % 1020,0 hPa 0,0 l/m 0 min 0 min 0 W/m 3,2 km/h (1 Bft) 100,00 %
18.03.2019 20:02 5,2 C 3,3 C 2,2 C 77 % 1020,0 hPa 0,0 l/m 0 min 0 min 0 W/m 3,2 km/h (1 Bft) 97,87 %
18.03.2019 20:04 5,1 C 3,3 C 1,7 C 77 % 1020,1 hPa 0,0 l/m 0 min 0 min 0 W/m 3,2 km/h (1 Bft) 100,00 %
18.03.2019 20:06 5,1 C 3,3 C 1,7 C 77 % 1020,1 hPa 0,0 l/m 0 min 0 min 0 W/m 3,2 km/h (1 Bft) 97,87 %
18.03.2019 20:08 5,0 C 3,3 C 1,7 C 77 % 1020,0 hPa 0,0 l/m 0 min 0 min 0 W/m 3,2 km/h (1 Bft) 97,87 %
18.03.2019 20:10 5,0 C 2,8 C 1,7 C 77 % 1020,0 hPa 0,0 l/m 0 min 0 min 0 W/m 3,2 km/h (1 Bft) 97,87 %
18.03.2019 20:12 4,9 C 2,8 C 1,7 C 77 % 1020,0 hPa 0,0 l/m 0 min 0 min 0 W/m 3,2 km/h (1 Bft) 97,87 %
18.03.2019 20:14 4,8 C 2,8 C 1,7 C 77 % 1020,0 hPa 0,0 l/m 0 min 0 min 0 W/m 3,2 km/h (1 Bft) 93,62 %
18.03.2019 20:16 4,8 C 2,8 C 1,7 C 77 % 1020,1 hPa 0,0 l/m 0 min 0 min 0 W/m 0,0 km/h (0 Bft) 94,23 %
18.03.2019 20:18 4,8 C 2,8 C 1,7 C 77 % 1020,2 hPa 0,0 l/m 0 min 0 min 0 W/m 3,2 km/h (1 Bft) 97,87 %
18.03.2019 20:20 4,7 C 2,8 C 1,7 C 77 % 1020,1 hPa 0,0 l/m 0 min 0 min 0 W/m 0,0 km/h (0 Bft) 97,87 %
18.03.2019 20:22 4,7 C 2,8 C 1,7 C 77 % 1020,1 hPa 0,0 l/m 0 min 0 min 0 W/m 0,0 km/h (0 Bft) 95,74 %
18.03.2019 20:24 4,6 C 2,8 C 1,7 C 77 % 1020,2 hPa 0,0 l/m 0 min 0 min 0 W/m 3,2 km/h (1 Bft) 97,87 %
18.03.2019 20:26 4,6 C 2,8 C 1,7 C 77 % 1020,2 hPa 0,0 l/m 0 min 0 min 0 W/m 3,2 km/h (1 Bft) 97,83 %
18.03.2019 20:28 4,5 C 2,8 C 1,7 C 77 % 1020,2 hPa 0,0 l/m 0 min 0 min 0 W/m 3,2 km/h (1 Bft) 97,87 %
18.03.2019 20:30 4,5 C 3,3 C 1,7 C 77 % 1020,2 hPa 0,0 l/m 0 min 0 min 0 W/m 3,2 km/h (1 Bft) 97,87 %
18.03.2019 20:32 4,4 C 2,8 C 1,7 C 78 % 1020,2 hPa 0,0 l/m 0 min 0 min 0 W/m 3,2 km/h (1 Bft) 95,74 %
18.03.2019 20:34 4,4 C 2,8 C 1,7 C 78 % 1020,2 hPa 0,0 l/m 0 min 0 min 0 W/m 3,2 km/h (1 Bft) 100,00 %
18.03.2019 20:36 4,3 C 2,8 C 1,7 C 78 % 1020,3 hPa 0,0 l/m 0 min 0 min 0 W/m 3,2 km/h (1 Bft) 100,00 %
18.03.2019 20:38 4,3 C 2,8 C 1,7 C 78 % 1020,3 hPa 0,0 l/m 0 min 0 min 0 W/m 3,2 km/h (1 Bft) 97,87 %
18.03.2019 20:40 4,2 C 2,8 C 1,1 C 78 % 1020,3 hPa 0,0 l/m 0 min 0 min 0 W/m 3,2 km/h (1 Bft) 100,00 %
18.03.2019 20:42 4,2 C 2,8 C 1,1 C 78 % 1020,3 hPa 0,0 l/m 0 min 0 min 0 W/m 0,0 km/h (0 Bft) 100,00 %
18.03.2019 20:44 4,2 C 2,8 C 1,1 C 78 % 1020,4 hPa 0,0 l/m 0 min 0 min 0 W/m 0,0 km/h (0 Bft) 100,00 %
18.03.2019 20:46 4,2 C 2,8 C 1,1 C 78 % 1020,5 hPa 0,0 l/m 0 min 0 min 0 W/m 3,2 km/h (1 Bft) 100,00 %
18.03.2019 20:48 4,1 C 2,8 C 1,7 C 78 % 1020,5 hPa 0,0 l/m 0 min 0 min 0 W/m 3,2 km/h (1 Bft) 97,87 %
18.03.2019 20:50 4,1 C 2,8 C 1,7 C 78 % 1020,5 hPa 0,0 l/m 0 min 0 min 0 W/m 3,2 km/h (1 Bft) 97,83 %
18.03.2019 20:52 4,0 C 2,8 C 1,1 C 78 % 1020,6 hPa 0,0 l/m 0 min 0 min 0 W/m 0,0 km/h (0 Bft) 97,87 %
18.03.2019 20:54 4,0 C 2,8 C 1,1 C 79 % 1020,6 hPa 0,0 l/m 0 min 0 min 0 W/m 3,2 km/h (1 Bft) 100,00 %
18.03.2019 20:56 3,9 C 2,8 C 1,1 C 79 % 1020,6 hPa 0,0 l/m 0 min 0 min 0 W/m 3,2 km/h (1 Bft) 100,00 %
18.03.2019 20:58 3,9 C 2,8 C 1,1 C 79 % 1020,6 hPa 0,0 l/m 0 min 0 min 0 W/m 3,2 km/h (1 Bft) 100,00 %
18.03.2019 21:00 3,9 C 2,8 C 1,1 C 79 % 1020,6 hPa 0,0 l/m 0 min 0 min 0 W/m 0,0 km/h (0 Bft) 100,00 %
18.03.2019 21:02 3,8 C 2,8 C 1,1 C 79 % 1020,6 hPa 0,0 l/m 0 min 0 min 0 W/m 0,0 km/h (0 Bft) 100,00 %
18.03.2019 21:04 3,8 C 2,8 C 1,1 C 79 % 1020,6 hPa 0,0 l/m 0 min 0 min 0 W/m 3,2 km/h (1 Bft) 100,00 %
18.03.2019 21:06 3,8 C 2,8 C 1,1 C 79 % 1020,7 hPa 0,0 l/m 0 min 0 min 0 W/m 0,0 km/h (0 Bft) 100,00 %
18.03.2019 21:08 3,8 C 2,8 C 1,1 C 79 % 1020,7 hPa 0,0 l/m 0 min 0 min 0 W/m 0,0 km/h (0 Bft) 100,00 %
18.03.2019 21:10 3,7 C 2,8 C 1,1 C 79 % 1020,7 hPa 0,0 l/m 0 min 0 min 0 W/m 3,2 km/h (1 Bft) 100,00 %
18.03.2019 21:12 3,7 C 2,2 C 1,1 C 80 % 1020,7 hPa 0,0 l/m 0 min 0 min 0 W/m 3,2 km/h (1 Bft) 100,00 %
18.03.2019 21:14 3,7 C 2,2 C 1,1 C 80 % 1020,7 hPa 0,0 l/m 0 min 0 min 0 W/m 3,2 km/h (1 Bft) 100,00 %
18.03.2019 21:16 3,7 C 2,2 C 1,1 C 80 % 1020,7 hPa 0,0 l/m 0 min 0 min 0 W/m 3,2 km/h (1 Bft) 100,00 %
18.03.2019 21:18 3,7 C 2,2 C 1,1 C 80 % 1020,8 hPa 0,0 l/m 0 min 0 min 0 W/m 0,0 km/h (0 Bft) 100,00 %
18.03.2019 21:20 3,6 C 2,2 C 1,1 C 80 % 1020,8 hPa 0,0 l/m 0 min 0 min 0 W/m 0,0 km/h (0 Bft) 100,00 %
18.03.2019 21:22 3,6 C 2,2 C 1,1 C 80 % 1020,8 hPa 0,0 l/m 0 min 0 min 0 W/m 0,0 km/h (0 Bft) 100,00 %
18.03.2019 21:24 3,6 C 2,2 C 1,1 C 80 % 1020,8 hPa 0,0 l/m 0 min 0 min 0 W/m 0,0 km/h (0 Bft) 97,83 %
18.03.2019 21:26 3,6 C 2,2 C 1,1 C 81 % 1020,8 hPa 0,0 l/m 0 min 0 min 0 W/m 3,2 km/h (1 Bft) 100,00 %
18.03.2019 21:28 3,5 C 2,2 C 1,1 C 81 % 1020,9 hPa 0,0 l/m 0 min 0 min 0 W/m 6,4 km/h (2 Bft) 97,87 %
18.03.2019 21:30 3,4 C 2,2 C 1,1 C 81 % 1020,9 hPa 0,0 l/m 0 min 0 min 0 W/m 6,4 km/h (2 Bft) 95,74 %
18.03.2019 21:32 3,4 C 2,2 C 1,1 C 81 % 1020,9 hPa 0,0 l/m 0 min 0 min 0 W/m 0,0 km/h (0 Bft) 95,74 %
18.03.2019 21:34 3,4 C 2,2 C 1,1 C 81 % 1020,9 hPa 0,0 l/m 0 min 0 min 0 W/m 0,0 km/h (0 Bft) 95,74 %
18.03.2019 21:36 3,4 C 2,2 C 1,1 C 81 % 1021,0 hPa 0,0 l/m 0 min 0 min 0 W/m 0,0 km/h (0 Bft) 95,65 %
18.03.2019 21:38 3,4 C 2,2 C 1,1 C 81 % 1021,0 hPa 0,0 l/m 0 min 0 min 0 W/m 0,0 km/h (0 Bft) 93,62 %
18.03.2019 21:40 3,3 C 2,2 C 1,1 C 81 % 1021,0 hPa 0,0 l/m 0 min 0 min 0 W/m 0,0 km/h (0 Bft) 93,62 %
18.03.2019 21:42 3,3 C 1,7 C 0,6 C 81 % 1021,0 hPa 0,0 l/m 0 min 0 min 0 W/m 0,0 km/h (0 Bft) 93,62 %
18.03.2019 21:44 3,3 C 1,7 C 0,6 C 81 % 1021,1 hPa 0,0 l/m 0 min 0 min 0 W/m 0,0 km/h (0 Bft) 91,49 %
18.03.2019 21:46 3,2 C 1,7 C 0,6 C 81 % 1021,1 hPa 0,0 l/m 0 min 0 min 0 W/m 0,0 km/h (0 Bft) 93,48 %
18.03.2019 21:48 3,2 C 1,7 C 0,6 C 81 % 1021,1 hPa 0,0 l/m 0 min 0 min 0 W/m 0,0 km/h (0 Bft) 93,62 %
18.03.2019 21:50 3,2 C 1,7 C 0,6 C 81 % 1021,0 hPa 0,0 l/m 0 min 0 min 0 W/m 0,0 km/h (0 Bft) 93,62 %
18.03.2019 21:52 3,2 C 1,7 C 0,6 C 81 % 1021,1 hPa 0,0 l/m 0 min 0 min 0 W/m 0,0 km/h (0 Bft) 93,62 %
18.03.2019 21:54 3,2 C 1,7 C 0,6 C 81 % 1021,2 hPa 0,0 l/m 0 min 0 min 0 W/m 0,0 km/h (0 Bft) 91,49 %
18.03.2019 21:56 3,1 C 1,7 C 0,6 C 81 % 1021,1 hPa 0,0 l/m 0 min 0 min 0 W/m 0,0 km/h (0 Bft) 93,62 %
18.03.2019 21:58 3,1 C 1,7 C 0,6 C 81 % 1021,2 hPa 0,0 l/m 0 min 0 min 0 W/m 0,0 km/h (0 Bft) 91,30 %
18.03.2019 22:00 3,1 C 1,7 C 0,6 C 82 % 1021,2 hPa 0,0 l/m 0 min 0 min 0 W/m 0,0 km/h (0 Bft) 93,62 %
18.03.2019 22:02 3,1 C 1,7 C 0,6 C 82 % 1021,3 hPa 0,0 l/m 0 min 0 min 0 W/m 0,0 km/h (0 Bft) 89,36 %
18.03.2019 22:04 3,0 C 1,7 C 0,6 C 82 % 1021,3 hPa 0,0 l/m 0 min 0 min 0 W/m 0,0 km/h (0 Bft) 95,74 %
18.03.2019 22:06 3,0 C 1,7 C 0,0 C 82 % 1021,3 hPa 0,0 l/m 0 min 0 min 0 W/m 0,0 km/h (0 Bft) 93,62 %
18.03.2019 22:08 2,9 C 1,7 C 0,0 C 82 % 1021,4 hPa 0,0 l/m 0 min 0 min 0 W/m 0,0 km/h (0 Bft) 94,44 %
18.03.2019 22:10 2,9 C 1,7 C 0,0 C 82 % 1021,4 hPa 0,0 l/m 0 min 0 min 0 W/m 0,0 km/h (0 Bft) 96,00 %
18.03.2019 22:12 2,9 C 1,7 C 0,0 C 81 % 1021,4 hPa 0,0 l/m 0 min 0 min 0 W/m 0,0 km/h (0 Bft) 95,65 %
18.03.2019 22:14 2,9 C 1,7 C 0,0 C 82 % 1021,5 hPa 0,0 l/m 0 min 0 min 0 W/m 0,0 km/h (0 Bft) 97,87 %
18.03.2019 22:16 2,8 C 1,1 C 0,0 C 82 % 1021,5 hPa 0,0 l/m 0 min 0 min 0 W/m 0,0 km/h (0 Bft) 95,74 %
18.03.2019 22:18 2,8 C 1,1 C 0,0 C 82 % 1021,6 hPa 0,0 l/m 0 min 0 min 0 W/m 0,0 km/h (0 Bft) 95,74 %
18.03.2019 22:20 2,8 C 1,1 C 0,0 C 82 % 1021,6 hPa 0,0 l/m 0 min 0 min 0 W/m 0,0 km/h (0 Bft) 95,74 %
18.03.2019 22:22 2,7 C 1,1 C 0,0 C 82 % 1021,7 hPa 0,0 l/m 0 min 0 min 0 W/m 0,0 km/h (0 Bft) 93,62 %
18.03.2019 22:24 2,7 C 1,1 C 0,0 C 82 % 1021,7 hPa 0,0 l/m 0 min 0 min 0 W/m 0,0 km/h (0 Bft) 97,83 %
18.03.2019 22:26 2,7 C 1,1 C 0,0 C 82 % 1021,7 hPa 0,0 l/m 0 min 0 min 0 W/m 0,0 km/h (0 Bft) 95,74 %
18.03.2019 22:28 2,7 C 1,1 C 0,0 C 82 % 1021,8 hPa 0,0 l/m 0 min 0 min 0 W/m 0,0 km/h (0 Bft) 93,62 %
18.03.2019 22:30 2,7 C 1,1 C 0,0 C 82 % 1021,8 hPa 0,0 l/m 0 min 0 min 0 W/m 0,0 km/h (0 Bft) 95,74 %
18.03.2019 22:32 2,6 C 1,1 C 0,0 C 82 % 1021,8 hPa 0,0 l/m 0 min 0 min 0 W/m 0,0 km/h (0 Bft) 95,74 %
18.03.2019 22:34 2,6 C 1,1 C 0,0 C 82 % 1021,8 hPa 0,0 l/m 0 min 0 min 0 W/m 0,0 km/h (0 Bft) 95,74 %
18.03.2019 22:36 2,6 C 1,1 C 0,0 C 82 % 1021,9 hPa 0,0 l/m 0 min 0 min 0 W/m 0,0 km/h (0 Bft) 93,48 %
18.03.2019 22:38 2,6 C 1,1 C 0,0 C 82 % 1022,0 hPa 0,0 l/m 0 min 0 min 0 W/m 0,0 km/h (0 Bft) 95,74 %
18.03.2019 22:40 2,5 C 1,1 C -0,6 C 82 % 1022,0 hPa 0,0 l/m 0 min 0 min 0 W/m 0,0 km/h (0 Bft) 97,87 %
18.03.2019 22:42 2,5 C 1,1 C 0,0 C 82 % 1022,0 hPa 0,0 l/m 0 min 0 min 0 W/m 0,0 km/h (0 Bft) 97,87 %
18.03.2019 22:44 2,4 C 1,1 C -0,6 C 82 % 1022,0 hPa 0,0 l/m 0 min 0 min 0 W/m 0,0 km/h (0 Bft) 97,87 %
18.03.2019 22:46 2,4 C 1,7 C -0,6 C 82 % 1022,1 hPa 0,0 l/m 0 min 0 min 0 W/m 0,0 km/h (0 Bft) 95,74 %
18.03.2019 22:48 2,4 C 1,7 C -0,6 C 83 % 1022,1 hPa 0,0 l/m 0 min 0 min 0 W/m 0,0 km/h (0 Bft) 97,83 %
18.03.2019 22:50 2,4 C 1,7 C -0,6 C 83 % 1022,1 hPa 0,0 l/m 0 min 0 min 0 W/m 0,0 km/h (0 Bft) 97,87 %
18.03.2019 22:52 2,4 C 1,7 C -0,6 C 83 % 1022,0 hPa 0,0 l/m 0 min 0 min 0 W/m 0,0 km/h (0 Bft) 97,87 %
18.03.2019 22:54 2,3 C 1,1 C -0,6 C 83 % 1022,0 hPa 0,0 l/m 0 min 0 min 0 W/m 0,0 km/h (0 Bft) 95,74 %
18.03.2019 22:56 2,3 C 1,1 C -0,6 C 83 % 1022,1 hPa 0,0 l/m 0 min 0 min 0 W/m 0,0 km/h (0 Bft) 95,74 %
18.03.2019 22:58 2,3 C 1,1 C -0,6 C 83 % 1022,0 hPa 0,0 l/m 0 min 0 min 0 W/m 0,0 km/h (0 Bft) 97,87 %
18.03.2019 23:00 2,3 C 1,1 C -0,6 C 83 % 1022,1 hPa 0,0 l/m 0 min 0 min 0 W/m 0,0 km/h (0 Bft) 100,00 %
18.03.2019 23:02 2,2 C 1,1 C -0,6 C 83 % 1022,0 hPa 0,0 l/m 0 min 0 min 0 W/m 0,0 km/h (0 Bft) 97,87 %
18.03.2019 23:04 2,2 C 1,1 C -0,6 C 83 % 1022,0 hPa 0,0 l/m 0 min 0 min 0 W/m 0,0 km/h (0 Bft) 97,87 %
18.03.2019 23:06 2,2 C 0,6 C -0,6 C 83 % 1022,0 hPa 0,0 l/m 0 min 0 min 0 W/m 0,0 km/h (0 Bft) 97,87 %
18.03.2019 23:08 2,2 C 0,6 C -0,6 C 83 % 1022,0 hPa 0,0 l/m 0 min 0 min 0 W/m 0,0 km/h (0 Bft) 100,00 %
18.03.2019 23:10 2,1 C 0,6 C -0,6 C 83 % 1021,9 hPa 0,0 l/m 0 min 0 min 0 W/m 0,0 km/h (0 Bft) 97,87 %
18.03.2019 23:12 2,1 C 0,6 C -0,6 C 83 % 1021,9 hPa 0,0 l/m 0 min 0 min 0 W/m 0,0 km/h (0 Bft) 95,74 %
18.03.2019 23:14 2,1 C 0,6 C -0,6 C 83 % 1022,0 hPa 0,0 l/m 0 min 0 min 0 W/m 0,0 km/h (0 Bft) 95,74 %
18.03.2019 23:16 2,1 C 0,6 C -0,6 C 83 % 1022,0 hPa 0,0 l/m 0 min 0 min 0 W/m 0,0 km/h (0 Bft) 95,74 %
18.03.2019 23:18 2,0 C 0,6 C -0,6 C 83 % 1022,0 hPa 0,0 l/m 0 min 0 min 0 W/m 0,0 km/h (0 Bft) 97,96 %
18.03.2019 23:20 2,0 C 0,6 C -0,6 C 83 % 1022,1 hPa 0,0 l/m 0 min 0 min 0 W/m 0,0 km/h (0 Bft) 97,87 %
18.03.2019 23:22 1,9 C 0,6 C -0,6 C 83 % 1022,1 hPa 0,0 l/m 0 min 0 min 0 W/m 0,0 km/h (0 Bft) 97,83 %
18.03.2019 23:24 1,9 C 0,6 C -0,6 C 83 % 1022,1 hPa 0,0 l/m 0 min 0 min 0 W/m 0,0 km/h (0 Bft) 95,74 %
18.03.2019 23:26 1,9 C 0,6 C -0,6 C 84 % 1022,1 hPa 0,0 l/m 0 min 0 min 0 W/m 0,0 km/h (0 Bft) 97,87 %
18.03.2019 23:28 1,8 C 0,6 C -0,6 C 83 % 1022,1 hPa 0,0 l/m 0 min 0 min 0 W/m 0,0 km/h (0 Bft) 97,87 %
18.03.2019 23:30 1,8 C 0,6 C -0,6 C 84 % 1022,1 hPa 0,0 l/m 0 min 0 min 0 W/m 0,0 km/h (0 Bft) 97,87 %
18.03.2019 23:32 1,8 C 0,6 C -0,6 C 84 % 1022,1 hPa 0,0 l/m 0 min 0 min 0 W/m 0,0 km/h (0 Bft) 97,87 %
18.03.2019 23:34 1,8 C 0,6 C -0,6 C 84 % 1022,1 hPa 0,0 l/m 0 min 0 min 0 W/m 0,0 km/h (0 Bft) 100,00 %
18.03.2019 23:36 1,7 C 0,6 C -0,6 C 84 % 1022,1 hPa 0,0 l/m 0 min 0 min 0 W/m 0,0 km/h (0 Bft) 100,00 %
18.03.2019 23:38 1,7 C 1,1 C -1,1 C 84 % 1022,1 hPa 0,0 l/m 0 min 0 min 0 W/m 0,0 km/h (0 Bft) 100,00 %
18.03.2019 23:40 1,7 C 1,1 C -1,1 C 84 % 1022,1 hPa 0,0 l/m 0 min 0 min 0 W/m 0,0 km/h (0 Bft) 100,00 %
18.03.2019 23:42 1,7 C 0,6 C -1,1 C 84 % 1022,2 hPa 0,0 l/m 0 min 0 min 0 W/m 0,0 km/h (0 Bft) 100,00 %
18.03.2019 23:44 1,7 C 0,6 C -1,1 C 84 % 1022,3 hPa 0,0 l/m 0 min 0 min 0 W/m 0,0 km/h (0 Bft) 100,00 %
18.03.2019 23:46 1,7 C 0,6 C -1,1 C 84 % 1022,3 hPa 0,0 l/m 0 min 0 min 0 W/m 0,0 km/h (0 Bft) 100,00 %
18.03.2019 23:48 1,6 C 0,6 C -1,1 C 84 % 1022,4 hPa 0,0 l/m 0 min 0 min 0 W/m 0,0 km/h (0 Bft) 100,00 %
18.03.2019 23:50 1,6 C 0,0 C -1,1 C 84 % 1022,3 hPa 0,0 l/m 0 min 0 min 0 W/m 0,0 km/h (0 Bft) 100,00 %
18.03.2019 23:52 1,6 C 0,0 C -1,1 C 84 % 1022,2 hPa 0,0 l/m 0 min 0 min 0 W/m 0,0 km/h (0 Bft) 100,00 %
18.03.2019 23:54 1,6 C 0,0 C -1,1 C 84 % 1022,4 hPa 0,0 l/m 0 min 0 min 0 W/m 0,0 km/h (0 Bft) 100,00 %
18.03.2019 23:56 1,5 C 0,0 C -1,1 C 85 % 1022,4 hPa 0,0 l/m 0 min 0 min 0 W/m 0,0 km/h (0 Bft) 100,00 %
18.03.2019 23:58 1,5 C 0,0 C -1,1 C 85 % 1022,3 hPa 0,0 l/m 0 min 0 min 0 W/m 0,0 km/h (0 Bft) 100,00 %
_ Min-Zeit 23:56 23:50 23:38 16:30 00:00 - - - - 05:46 00:02
Minimum _ 1,5 C 0,0 C -1,1 C 60 % 1008,9 hPa - - - - 0,0 km/h (0 Bft) 11,11 %
_ Max-Zeit 15:12 12:44 12:50 08:26 23:48 04:22 12:07 05:10 12:48 13:04 00:00
Maximum _ 10,6 C 17,2 C 16,1 C 96 % 1022,4 hPa 0,2 l/m 3 min 5 min 782 W/m 35,4 km/h
N-NW (5 Bft)
100,00 %
Durchschnitt _ 5,4 C 5,7 C 4,3 C 82 % 1015,4 hPa #0,8 l/m #5:42 h #3:06 h 253 W/m 11,1 km/h (2 Bft) 97,48 %
© 2019 W. Hausmann